Time,TemperatureF,DewpointF,PressureIn,WindDirection,WindDirectionDegrees,WindSpeedMPH,WindSpeedGustMPH,Humidity,HourlyPrecipIn,Conditions,Clouds,dailyrainin,SoftwareType,DateUTC
2013-01-24 00:00:00,14.4,-3.1,30.12,NNW,338,5.6,6.5,45,0.00,,SKC,0.00,VWS V14.01,2013-01-24 05:00:00,
2013-01-24 00:01:00,14.4,-3.1,30.12,NW,315,5.8,6.5,45,0.00,,SKC,0.00,VWS V14.01,2013-01-24 05:01:00,
2013-01-24 00:02:00,14.2,-3.2,30.09,WNW,292,5.6,8.5,45,0.00,,SKC,0.00,VWS V14.01,2013-01-24 05:02:00,
2013-01-24 00:03:00,14.4,-3.1,30.12,NW,315,4.9,8.7,45,0.00,,SKC,0.00,VWS V14.01,2013-01-24 05:03:00,
2013-01-24 00:04:00,14.2,-3.2,30.09,NW,315,6.3,6.3,45,0.00,,SKC,0.00,VWS V14.01,2013-01-24 05:04:00,
2013-01-24 00:06:00,14.2,-3.2,30.09,NNW,338,5.4,8.7,45,0.00,,SKC,0.00,VWS V14.01,2013-01-24 05:06:00,
2013-01-24 00:08:00,14.4,-3.1,30.12,NW,315,3.6,6.3,45,0.00,,SKC,0.00,VWS V14.01,2013-01-24 05:08:00,
2013-01-24 00:10:00,14.2,-3.2,30.09,NW,315,4.9,5.8,45,0.00,,SKC,0.00,VWS V14.01,2013-01-24 05:10:00,
2013-01-24 00:12:00,14.2,-3.2,30.09,NW,315,7.4,7.4,45,0.00,,SKC,0.00,VWS V14.01,2013-01-24 05:12:00,
2013-01-24 00:13:00,14.2,-3.2,30.09,NNE,22,3.8,4.7,45,0.00,,SKC,0.00,VWS V14.01,2013-01-24 05:13:00,
2013-01-24 00:14:00,14.2,-3.2,30.09,NNW,338,5.4,7.2,45,0.00,,SKC,0.00,VWS V14.01,2013-01-24 05:14:00,
2013-01-24 00:16:00,14.2,-3.2,30.09,WNW,292,7.4,7.4,45,0.00,,SKC,0.00,VWS V14.01,2013-01-24 05:16:00,
2013-01-24 00:18:00,14.2,-3.2,30.09,NW,315,2.9,5.4,45,0.00,,SKC,0.00,VWS V14.01,2013-01-24 05:18:00,
2013-01-24 00:20:00,14.2,-3.2,30.09,NW,315,4.0,5.8,45,0.00,,SKC,0.00,VWS V14.01,2013-01-24 05:20:00,
2013-01-24 00:22:00,14.2,-3.2,30.09,WNW,292,3.8,5.6,45,0.00,,SKC,0.00,VWS V14.01,2013-01-24 05:22:00,
2013-01-24 00:23:00,14.2,-3.2,30.09,NW,315,6.0,6.0,45,0.00,,SKC,0.00,VWS V14.01,2013-01-24 05:23:00,
2013-01-24 00:24:00,14.2,-3.2,30.09,NW,315,5.6,5.6,45,0.00,,SKC,0.00,VWS V14.01,2013-01-24 05:24:00,
2013-01-24 00:26:00,14.0,-3.0,30.09,NW,315,8.7,8.7,46,0.00,,SKC,0.00,VWS V14.01,2013-01-24 05:26:00,
2013-01-24 00:28:00,14.2,-3.2,30.09,WNW,292,5.4,6.0,45,0.00,,SKC,0.00,VWS V14.01,2013-01-24 05:28:00,
2013-01-24 00:30:00,14.0,-3.0,30.09,NW,315,4.0,6.0,46,0.00,,SKC,0.00,VWS V14.01,2013-01-24 05:30:00,
2013-01-24 00:32:00,14.2,-3.2,30.09,West,270,7.8,9.8,45,0.00,,SKC,0.00,VWS V14.01,2013-01-24 05:32:00,
2013-01-24 00:33:00,14.2,-3.2,30.09,NW,315,5.6,5.6,45,0.00,,SKC,0.00,VWS V14.01,2013-01-24 05:33:00,
2013-01-24 00:34:00,14.2,-3.2,30.09,WNW,292,3.6,7.4,45,0.00,,SKC,0.00,VWS V14.01,2013-01-24 05:34:00,
2013-01-24 00:36:00,14.2,-3.2,30.09,WNW,292,4.3,5.8,45,0.00,,SKC,0.00,VWS V14.01,2013-01-24 05:36:00,
2013-01-24 00:38:00,14.2,-3.2,30.09,NW,315,3.8,5.6,45,0.00,,SKC,0.00,VWS V14.01,2013-01-24 05:38:00,
2013-01-24 00:40:00,14.2,-3.2,30.09,NW,315,3.6,6.0,45,0.00,,SKC,0.00,VWS V14.01,2013-01-24 05:40:00,
2013-01-24 00:42:00,14.2,-3.2,30.09,NW,315,5.8,5.8,45,0.00,,SKC,0.00,VWS V14.01,2013-01-24 05:42:00,
2013-01-24 00:43:00,14.0,-3.0,30.09,NW,315,3.6,3.8,46,0.00,,SKC,0.00,VWS V14.01,2013-01-24 05:43:00,
2013-01-24 00:44:00,14.2,-3.2,30.09,NW,315,3.1,5.8,45,0.00,,SKC,0.00,VWS V14.01,2013-01-24 05:44:00,
2013-01-24 00:46:00,14.2,-3.2,30.09,NW,315,6.5,8.7,45,0.00,,SKC,0.00,VWS V14.01,2013-01-24 05:46:00,
2013-01-24 00:48:00,14.0,-3.4,30.09,NW,315,4.0,6.0,45,0.00,,SKC,0.00,VWS V14.01,2013-01-24 05:48:00,
2013-01-24 00:50:00,14.2,-3.2,30.09,NNW,338,5.6,5.6,45,0.00,,SKC,0.00,VWS V14.01,2013-01-24 05:50:00,
2013-01-24 00:52:00,14.2,-3.2,30.09,NNW,338,7.6,7.6,45,0.00,,SKC,0.00,VWS V14.01,2013-01-24 05:52:00,
2013-01-24 00:53:00,14.0,-3.0,30.09,NW,315,6.5,6.5,46,0.00,,SKC,0.00,VWS V14.01,2013-01-24 05:53:00,
2013-01-24 00:54:00,14.2,-3.2,30.09,NW,315,3.8,8.7,45,0.00,,SKC,0.00,VWS V14.01,2013-01-24 05:54:00,
2013-01-24 00:56:00,14.2,-2.8,30.09,NW,315,3.1,4.9,46,0.00,,SKC,0.00,VWS V14.01,2013-01-24 05:56:00,
2013-01-24 00:58:00,14.0,-3.4,30.09,NW,315,9.4,9.4,45,0.00,,SKC,0.00,VWS V14.01,2013-01-24 05:58:00,
2013-01-24 01:00:00,14.2,-2.8,30.09,North,0,4.9,5.8,46,0.00,,SKC,0.00,VWS V14.01,2013-01-24 06:00:00,
2013-01-24 01:02:00,14.2,-2.8,30.09,NW,315,5.6,7.6,46,0.00,,SKC,0.00,VWS V14.01,2013-01-24 06:02:00,
2013-01-24 01:03:00,14.2,-3.2,30.09,NW,315,6.3,6.3,45,0.00,,SKC,0.00,VWS V14.01,2013-01-24 06:03:00,
2013-01-24 01:04:00,14.0,-3.0,30.09,NW,315,4.9,4.9,46,0.00,,SKC,0.00,VWS V14.01,2013-01-24 06:04:00,
2013-01-24 01:06:00,14.0,-3.0,30.09,NW,315,5.4,7.4,46,0.00,,SKC,0.00,VWS V14.01,2013-01-24 06:06:00,
2013-01-24 01:08:00,14.2,-3.2,30.09,NW,315,4.9,5.4,45,0.00,,SKC,0.00,VWS V14.01,2013-01-24 06:08:00,
2013-01-24 01:10:00,14.0,-3.0,30.09,NW,315,4.0,6.9,46,0.00,,SKC,0.00,VWS V14.01,2013-01-24 06:10:00,
2013-01-24 01:12:00,14.0,-3.0,30.09,NNW,338,3.1,4.9,46,0.00,,SKC,0.00,VWS V14.01,2013-01-24 06:12:00,
2013-01-24 01:13:00,14.2,-3.2,30.09,WNW,292,5.8,7.2,45,0.00,,SKC,0.00,VWS V14.01,2013-01-24 06:13:00,
2013-01-24 01:14:00,14.0,-3.0,30.09,NNW,338,7.8,7.8,46,0.00,,SKC,0.00,VWS V14.01,2013-01-24 06:14:00,
2013-01-24 01:16:00,14.0,-3.0,30.09,WNW,292,4.9,8.1,46,0.00,,SKC,0.00,VWS V14.01,2013-01-24 06:16:00,
2013-01-24 01:18:00,14.2,-3.2,30.09,North,0,5.4,7.2,45,0.00,,SKC,0.00,VWS V14.01,2013-01-24 06:18:00,
2013-01-24 01:20:00,14.0,-3.0,30.09,NW,315,4.3,5.4,46,0.00,,SKC,0.00,VWS V14.01,2013-01-24 06:20:00,
2013-01-24 01:22:00,14.0,-3.0,30.09,NW,315,5.4,5.4,46,0.00,,SKC,0.00,VWS V14.01,2013-01-24 06:22:00,
2013-01-24 01:23:00,14.2,-3.2,30.09,NW,315,5.6,5.6,45,0.00,,SKC,0.00,VWS V14.01,2013-01-24 06:23:00,
2013-01-24 01:24:00,13.8,-3.1,30.09,NW,315,4.0,5.6,46,0.00,,SKC,0.00,VWS V14.01,2013-01-24 06:24:00,
2013-01-24 01:26:00,13.8,-3.1,30.09,NW,315,6.3,7.8,46,0.00,,SKC,0.00,VWS V14.01,2013-01-24 06:26:00,
2013-01-24 01:28:00,14.0,-3.0,30.09,NW,315,4.9,6.3,46,0.00,,SKC,0.00,VWS V14.01,2013-01-24 06:28:00,
2013-01-24 01:30:00,13.8,-3.1,30.09,NNW,338,4.3,4.3,46,0.00,,SKC,0.00,VWS V14.01,2013-01-24 06:30:00,
2013-01-24 01:32:00,13.8,-3.1,30.09,NW,315,3.4,4.7,46,0.00,,SKC,0.00,VWS V14.01,2013-01-24 06:32:00,
2013-01-24 01:33:00,14.2,-3.2,30.09,NW,315,5.6,7.4,45,0.00,,SKC,0.00,VWS V14.01,2013-01-24 06:33:00,
2013-01-24 01:34:00,13.8,-3.1,30.09,NNW,338,5.8,8.5,46,0.00,,SKC,0.00,VWS V14.01,2013-01-24 06:34:00,
2013-01-24 01:36:00,13.6,-3.3,30.09,NW,315,5.6,7.4,46,0.00,,SKC,0.00,VWS V14.01,2013-01-24 06:36:00,
2013-01-24 01:38:00,14.2,-3.2,30.09,NW,315,4.0,6.0,45,0.00,,SKC,0.00,VWS V14.01,2013-01-24 06:38:00,
2013-01-24 01:40:00,13.8,-3.1,30.09,NW,315,5.4,6.5,46,0.00,,SKC,0.00,VWS V14.01,2013-01-24 06:40:00,
2013-01-24 01:42:00,13.8,-3.1,30.09,NNW,338,4.7,8.7,46,0.00,,SKC,0.00,VWS V14.01,2013-01-24 06:42:00,
2013-01-24 01:43:00,14.2,-3.2,30.09,NW,315,3.1,5.8,45,0.00,,SKC,0.00,VWS V14.01,2013-01-24 06:43:00,
2013-01-24 01:44:00,13.8,-3.1,30.09,NW,315,4.3,6.3,46,0.00,,SKC,0.00,VWS V14.01,2013-01-24 06:44:00,
2013-01-24 01:46:00,13.8,-3.1,30.09,NNW,338,4.9,6.3,46,0.00,,SKC,0.00,VWS V14.01,2013-01-24 06:46:00,
2013-01-24 01:48:00,14.2,-3.2,30.09,NW,315,3.1,6.5,45,0.00,,SKC,0.00,VWS V14.01,2013-01-24 06:48:00,
2013-01-24 01:50:00,13.6,-3.3,30.09,NNW,338,3.4,4.7,46,0.00,,SKC,0.00,VWS V14.01,2013-01-24 06:50:00,
2013-01-24 01:52:00,13.6,-3.3,30.09,NNW,338,2.5,5.4,46,0.00,,SKC,0.00,VWS V14.01,2013-01-24 06:52:00,
2013-01-24 01:53:00,14.2,-3.2,30.09,NW,315,3.8,8.7,45,0.00,,SKC,0.00,VWS V14.01,2013-01-24 06:53:00,
2013-01-24 01:54:00,13.6,-3.3,30.09,NW,315,3.8,4.3,46,0.00,,SKC,0.00,VWS V14.01,2013-01-24 06:54:00,
2013-01-24 01:56:00,13.6,-3.3,30.09,NW,315,6.0,6.7,46,0.00,,SKC,0.00,VWS V14.01,2013-01-24 06:56:00,
2013-01-24 01:58:00,14.2,-2.8,30.09,NNW,338,4.9,8.1,46,0.00,,SKC,0.00,VWS V14.01,2013-01-24 06:58:00,
2013-01-24 02:02:00,13.6,-3.3,30.09,NNW,338,5.6,8.1,46,0.00,,SKC,0.00,VWS V14.01,2013-01-24 07:02:00,
2013-01-24 02:03:00,14.0,-3.0,30.09,NW,315,4.9,4.9,46,0.00,,SKC,0.00,VWS V14.01,2013-01-24 07:03:00,
2013-01-24 02:04:00,13.6,-3.3,30.09,NNW,338,3.8,6.5,46,0.00,,SKC,0.00,VWS V14.01,2013-01-24 07:04:00,
2013-01-24 02:06:00,13.6,-3.3,30.09,NW,315,6.0,6.0,46,0.00,,SKC,0.00,VWS V14.01,2013-01-24 07:06:00,
2013-01-24 02:08:00,14.2,-2.8,30.09,NW,315,6.5,6.9,46,0.00,,SKC,0.00,VWS V14.01,2013-01-24 07:08:00,
2013-01-24 02:10:00,13.8,-3.1,30.09,NW,315,4.3,5.4,46,0.00,,SKC,0.00,VWS V14.01,2013-01-24 07:10:00,
2013-01-24 02:12:00,13.8,-3.1,30.09,NNW,338,6.5,9.6,46,0.00,,SKC,0.00,VWS V14.01,2013-01-24 07:12:00,
2013-01-24 02:13:00,14.0,-3.0,30.09,NW,315,5.6,7.2,46,0.00,,SKC,0.00,VWS V14.01,2013-01-24 07:13:00,
2013-01-24 02:14:00,13.8,-3.1,30.06,NW,315,6.0,7.2,46,0.00,,SKC,0.00,VWS V14.01,2013-01-24 07:14:00,
2013-01-24 02:16:00,13.8,-3.1,30.06,NW,315,4.0,6.3,46,0.00,,SKC,0.00,VWS V14.01,2013-01-24 07:16:00,
2013-01-24 02:18:00,14.0,-3.0,30.09,NW,315,3.8,4.0,46,0.00,,SKC,0.00,VWS V14.01,2013-01-24 07:18:00,
2013-01-24 02:20:00,13.8,-3.1,30.06,NW,315,4.0,6.3,46,0.00,,SKC,0.00,VWS V14.01,2013-01-24 07:20:00,
2013-01-24 02:22:00,13.8,-3.1,30.06,NW,315,7.6,7.6,46,0.00,,SKC,0.00,VWS V14.01,2013-01-24 07:22:00,
2013-01-24 02:24:00,13.8,-3.1,30.09,NW,315,4.0,5.6,46,0.00,,SKC,0.00,VWS V14.01,2013-01-24 07:24:00,
2013-01-24 02:26:00,13.8,-3.1,30.06,NW,315,8.5,8.5,46,0.00,,SKC,0.00,VWS V14.01,2013-01-24 07:26:00,
2013-01-24 02:28:00,13.8,-3.1,30.06,NNW,338,4.3,8.7,46,0.00,,SKC,0.00,VWS V14.01,2013-01-24 07:28:00,
2013-01-24 02:29:00,13.8,-3.1,30.09,NW,315,3.8,6.0,46,0.00,,SKC,0.00,VWS V14.01,2013-01-24 07:29:00,
2013-01-24 02:30:00,13.8,-3.1,30.06,NW,315,4.7,6.0,46,0.00,,SKC,0.00,VWS V14.01,2013-01-24 07:30:00,
2013-01-24 02:32:00,13.8,-3.1,30.06,NNW,338,4.0,6.3,46,0.00,,SKC,0.00,VWS V14.01,2013-01-24 07:32:00,
2013-01-24 02:34:00,13.8,-3.1,30.09,NNW,338,5.8,8.5,46,0.00,,SKC,0.00,VWS V14.01,2013-01-24 07:34:00,
2013-01-24 02:36:00,13.8,-3.1,30.06,NNW,338,5.8,6.3,46,0.00,,SKC,0.00,VWS V14.01,2013-01-24 07:36:00,
2013-01-24 02:38:00,13.8,-3.1,30.06,NNW,338,9.6,9.6,46,0.00,,SKC,0.00,VWS V14.01,2013-01-24 07:38:00,
2013-01-24 02:39:00,13.8,-3.1,30.09,NW,315,5.8,6.5,46,0.00,,SKC,0.00,VWS V14.01,2013-01-24 07:39:00,
2013-01-24 02:40:00,13.8,-3.1,30.06,North,0,5.4,7.6,46,0.00,,SKC,0.00,VWS V14.01,2013-01-24 07:40:00,
2013-01-24 02:42:00,14.0,-3.0,30.06,NNW,338,5.4,6.3,46,0.00,,SKC,0.00,VWS V14.01,2013-01-24 07:42:00,
2013-01-24 02:44:00,13.8,-3.1,30.09,NW,315,4.3,6.3,46,0.00,,SKC,0.00,VWS V14.01,2013-01-24 07:44:00,
2013-01-24 02:46:00,14.0,-3.0,30.06,North,0,2.7,5.8,46,0.00,,SKC,0.00,VWS V14.01,2013-01-24 07:46:00,
2013-01-24 02:48:00,14.0,-3.0,30.06,NW,315,7.8,7.8,46,0.00,,SKC,0.00,VWS V14.01,2013-01-24 07:48:00,
2013-01-24 02:49:00,13.6,-3.3,30.09,NNW,338,3.8,7.8,46,0.00,,SKC,0.00,VWS V14.01,2013-01-24 07:49:00,
2013-01-24 02:50:00,14.0,-3.0,30.06,NNW,338,3.4,6.0,46,0.00,,SKC,0.00,VWS V14.01,2013-01-24 07:50:00,
2013-01-24 02:52:00,13.8,-3.1,30.06,NNW,338,5.6,5.6,46,0.00,,SKC,0.00,VWS V14.01,2013-01-24 07:52:00,
2013-01-24 02:54:00,13.6,-3.3,30.09,NW,315,4.3,4.3,46,0.00,,SKC,0.00,VWS V14.01,2013-01-24 07:54:00,
2013-01-24 02:56:00,13.8,-3.1,30.06,North,0,5.8,7.4,46,0.00,,SKC,0.00,VWS V14.01,2013-01-24 07:56:00,
2013-01-24 02:58:00,13.8,-3.1,30.06,North,0,7.8,8.7,46,0.00,,SKC,0.00,VWS V14.01,2013-01-24 07:58:00,
2013-01-24 02:59:00,13.6,-3.3,30.09,NW,315,3.4,7.2,46,0.00,,SKC,0.00,VWS V14.01,2013-01-24 07:59:00,
2013-01-24 03:00:00,13.8,-3.1,30.06,NNW,338,5.4,8.7,46,0.00,,SKC,0.00,VWS V14.01,2013-01-24 08:00:00,
2013-01-24 03:02:00,13.8,-3.1,30.06,NNW,338,6.5,8.7,46,0.00,,SKC,0.00,VWS V14.01,2013-01-24 08:02:00,
2013-01-24 03:04:00,13.6,-3.3,30.09,NNW,338,3.8,6.5,46,0.00,,SKC,0.00,VWS V14.01,2013-01-24 08:04:00,
2013-01-24 03:06:00,13.6,-3.3,30.06,NNW,338,6.5,7.8,46,0.00,,SKC,0.00,VWS V14.01,2013-01-24 08:06:00,
2013-01-24 03:08:00,13.6,-3.3,30.06,NNW,338,5.4,7.2,46,0.00,,SKC,0.00,VWS V14.01,2013-01-24 08:08:00,
2013-01-24 03:09:00,13.6,-3.3,30.09,NW,315,5.4,6.3,46,0.00,,SKC,0.00,VWS V14.01,2013-01-24 08:09:00,
2013-01-24 03:10:00,13.6,-3.3,30.06,North,0,6.5,7.8,46,0.00,,SKC,0.00,VWS V14.01,2013-01-24 08:10:00,
2013-01-24 03:12:00,13.6,-3.3,30.06,NW,315,6.5,8.1,46,0.00,,SKC,0.00,VWS V14.01,2013-01-24 08:12:00,
2013-01-24 03:14:00,13.8,-3.1,30.06,North,0,6.9,7.2,46,0.00,,SKC,0.00,VWS V14.01,2013-01-24 08:14:00,
2013-01-24 03:16:00,13.5,-3.5,30.06,NNW,338,4.9,7.8,46,0.00,,SKC,0.00,VWS V14.01,2013-01-24 08:16:00,
2013-01-24 03:18:00,13.5,-3.5,30.06,NNW,338,4.9,6.5,46,0.00,,SKC,0.00,VWS V14.01,2013-01-24 08:18:00,
2013-01-24 03:19:00,13.8,-3.1,30.06,NNW,338,3.4,6.3,46,0.00,,SKC,0.00,VWS V14.01,2013-01-24 08:19:00,
2013-01-24 03:20:00,13.3,-3.6,30.06,North,0,4.9,6.3,46,0.00,,SKC,0.00,VWS V14.01,2013-01-24 08:20:00,
2013-01-24 03:22:00,13.3,-3.6,30.06,North,0,6.3,6.9,46,0.00,,SKC,0.00,VWS V14.01,2013-01-24 08:22:00,
2013-01-24 03:24:00,13.8,-3.1,30.06,NW,315,3.6,6.3,46,0.00,,SKC,0.00,VWS V14.01,2013-01-24 08:24:00,
2013-01-24 03:26:00,13.3,-3.6,30.06,North,0,8.5,8.5,46,0.00,,SKC,0.00,VWS V14.01,2013-01-24 08:26:00,
2013-01-24 03:28:00,13.3,-3.6,30.06,North,0,5.8,7.6,46,0.00,,SKC,0.00,VWS V14.01,2013-01-24 08:28:00,
2013-01-24 03:29:00,13.8,-3.1,30.06,NW,315,6.0,6.0,46,0.00,,SKC,0.00,VWS V14.01,2013-01-24 08:29:00,
2013-01-24 03:30:00,13.3,-3.6,30.06,NNE,22,5.4,8.5,46,0.00,,SKC,0.00,VWS V14.01,2013-01-24 08:30:00,
2013-01-24 03:32:00,13.3,-3.6,30.06,North,0,3.4,4.7,46,0.00,,SKC,0.00,VWS V14.01,2013-01-24 08:32:00,
2013-01-24 03:34:00,13.8,-3.1,30.06,NNW,338,5.6,5.6,46,0.00,,SKC,0.00,VWS V14.01,2013-01-24 08:34:00,
2013-01-24 03:36:00,13.3,-3.6,30.06,North,0,5.4,8.7,46,0.00,,SKC,0.00,VWS V14.01,2013-01-24 08:36:00,
2013-01-24 03:38:00,13.3,-3.6,30.06,NNE,22,4.0,7.8,46,0.00,,SKC,0.00,VWS V14.01,2013-01-24 08:38:00,
2013-01-24 03:39:00,13.8,-3.1,30.06,North,0,5.4,7.6,46,0.00,,SKC,0.00,VWS V14.01,2013-01-24 08:39:00,
2013-01-24 03:40:00,13.3,-3.6,30.06,North,0,8.5,8.7,46,0.00,,SKC,0.00,VWS V14.01,2013-01-24 08:40:00,
2013-01-24 03:42:00,13.3,-3.6,30.06,North,0,6.3,10.3,46,0.00,,SKC,0.00,VWS V14.01,2013-01-24 08:42:00,
2013-01-24 03:44:00,14.0,-3.0,30.06,North,0,5.8,8.5,46,0.00,,SKC,0.00,VWS V14.01,2013-01-24 08:44:00,
2013-01-24 03:46:00,13.3,-3.6,30.06,NNE,22,6.5,8.5,46,0.00,,SKC,0.00,VWS V14.01,2013-01-24 08:46:00,
2013-01-24 03:48:00,13.1,-3.8,30.06,NNW,338,3.6,6.3,46,0.00,,SKC,0.00,VWS V14.01,2013-01-24 08:48:00,
2013-01-24 03:49:00,14.0,-3.0,30.06,NNW,338,3.6,7.8,46,0.00,,SKC,0.00,VWS V14.01,2013-01-24 08:49:00,
2013-01-24 03:50:00,13.1,-3.8,30.06,NNW,338,4.0,6.5,46,0.00,,SKC,0.00,VWS V14.01,2013-01-24 08:50:00,
2013-01-24 03:52:00,13.1,-3.8,30.06,North,0,4.7,6.0,46,0.00,,SKC,0.00,VWS V14.01,2013-01-24 08:52:00,
2013-01-24 03:54:00,13.8,-3.1,30.06,NNW,338,3.4,7.6,46,0.00,,SKC,0.00,VWS V14.01,2013-01-24 08:54:00,
2013-01-24 03:56:00,12.9,-4.0,30.06,NNW,338,5.6,8.1,46,0.00,,SKC,0.00,VWS V14.01,2013-01-24 08:56:00,
2013-01-24 03:58:00,12.9,-4.0,30.06,North,0,5.4,6.5,46,0.00,,SKC,0.00,VWS V14.01,2013-01-24 08:58:00,
2013-01-24 03:59:00,13.8,-3.1,30.06,NNW,338,6.3,8.7,46,0.00,,SKC,0.00,VWS V14.01,2013-01-24 08:59:00,
2013-01-24 04:00:00,12.9,-4.0,30.06,North,0,7.6,7.6,46,0.00,,SKC,0.00,VWS V14.01,2013-01-24 09:00:00,
2013-01-24 04:02:00,12.9,-4.0,30.06,North,0,4.3,7.2,46,0.00,,SKC,0.00,VWS V14.01,2013-01-24 09:02:00,
2013-01-24 04:04:00,13.8,-3.1,30.06,North,0,7.8,8.5,46,0.00,,SKC,0.00,VWS V14.01,2013-01-24 09:04:00,
2013-01-24 04:06:00,12.9,-4.0,30.06,NNE,22,6.0,10.7,46,0.00,,SKC,0.00,VWS V14.01,2013-01-24 09:06:00,
2013-01-24 04:08:00,12.9,-4.0,30.06,NNW,338,2.9,5.6,46,0.00,,SKC,0.00,VWS V14.01,2013-01-24 09:08:00,
2013-01-24 04:09:00,13.6,-3.3,30.06,North,0,7.8,7.8,46,0.00,,SKC,0.00,VWS V14.01,2013-01-24 09:09:00,
2013-01-24 04:10:00,12.7,-4.1,30.06,NNW,338,5.6,6.3,46,0.00,,SKC,0.00,VWS V14.01,2013-01-24 09:10:00,
2013-01-24 04:12:00,12.7,-4.1,30.06,NNW,338,4.3,7.8,46,0.00,,SKC,0.00,VWS V14.01,2013-01-24 09:12:00,
2013-01-24 04:14:00,12.7,-4.1,30.09,North,0,5.6,9.6,46,0.00,,SKC,0.00,VWS V14.01,2013-01-24 09:14:00,
2013-01-24 04:15:00,13.5,-3.5,30.06,North,0,3.8,5.8,46,0.00,,SKC,0.00,VWS V14.01,2013-01-24 09:15:00,
2013-01-24 04:16:00,12.7,-4.1,30.09,NNW,338,5.4,6.7,46,0.00,,SKC,0.00,VWS V14.01,2013-01-24 09:16:00,
2013-01-24 04:18:00,12.7,-4.1,30.09,North,0,5.6,8.5,46,0.00,,SKC,0.00,VWS V14.01,2013-01-24 09:18:00,
2013-01-24 04:20:00,13.3,-3.6,30.06,North,0,4.9,6.3,46,0.00,,SKC,0.00,VWS V14.01,2013-01-24 09:20:00,
2013-01-24 04:22:00,12.7,-4.1,30.09,North,0,5.8,10.3,46,0.00,,SKC,0.00,VWS V14.01,2013-01-24 09:22:00,
2013-01-24 04:24:00,12.7,-4.1,30.09,North,0,5.4,8.7,46,0.00,,SKC,0.00,VWS V14.01,2013-01-24 09:24:00,
2013-01-24 04:25:00,13.3,-3.6,30.06,NNE,22,4.9,8.1,46,0.00,,SKC,0.00,VWS V14.01,2013-01-24 09:25:00,
2013-01-24 04:26:00,12.7,-4.1,30.09,NW,315,4.9,8.1,46,0.00,,SKC,0.00,VWS V14.01,2013-01-24 09:26:00,
2013-01-24 04:28:00,12.7,-4.1,30.09,North,0,6.0,7.4,46,0.00,,SKC,0.00,VWS V14.01,2013-01-24 09:28:00,
2013-01-24 04:30:00,13.3,-3.6,30.06,NNE,22,5.4,8.5,46,0.00,,SKC,0.00,VWS V14.01,2013-01-24 09:30:00,
2013-01-24 04:32:00,12.7,-4.1,30.06,NNW,338,7.2,10.7,46,0.00,,SKC,0.00,VWS V14.01,2013-01-24 09:32:00,
2013-01-24 04:34:00,12.7,-4.1,30.06,NNW,338,6.3,8.7,46,0.00,,SKC,0.00,VWS V14.01,2013-01-24 09:34:00,
2013-01-24 04:35:00,13.3,-3.6,30.06,North,0,7.4,8.7,46,0.00,,SKC,0.00,VWS V14.01,2013-01-24 09:35:00,
2013-01-24 04:36:00,12.7,-4.1,30.06,North,0,3.6,9.6,46,0.00,,SKC,0.00,VWS V14.01,2013-01-24 09:36:00,
2013-01-24 04:38:00,12.7,-4.1,30.06,NNW,338,4.3,7.6,46,0.00,,SKC,0.00,VWS V14.01,2013-01-24 09:38:00,
2013-01-24 04:40:00,13.3,-3.6,30.06,North,0,8.5,8.7,46,0.00,,SKC,0.00,VWS V14.01,2013-01-24 09:40:00,
2013-01-24 04:42:00,12.6,-4.3,30.06,NNW,338,6.3,10.5,46,0.00,,SKC,0.00,VWS V14.01,2013-01-24 09:42:00,
2013-01-24 04:44:00,12.6,-4.3,30.09,NNW,338,7.2,8.7,46,0.00,,SKC,0.00,VWS V14.01,2013-01-24 09:44:00,
2013-01-24 04:45:00,13.3,-3.6,30.06,NNW,338,6.5,6.5,46,0.00,,SKC,0.00,VWS V14.01,2013-01-24 09:45:00,
2013-01-24 04:46:00,12.6,-4.3,30.09,NNW,338,8.1,10.5,46,0.00,,SKC,0.00,VWS V14.01,2013-01-24 09:46:00,
2013-01-24 04:48:00,12.6,-4.3,30.09,North,0,6.0,8.5,46,0.00,,SKC,0.00,VWS V14.01,2013-01-24 09:48:00,
2013-01-24 04:50:00,13.1,-3.8,30.06,NNW,338,4.0,6.5,46,0.00,,SKC,0.00,VWS V14.01,2013-01-24 09:50:00,
2013-01-24 04:52:00,12.6,-4.3,30.09,NW,315,4.7,9.6,46,0.00,,SKC,0.00,VWS V14.01,2013-01-24 09:52:00,
2013-01-24 04:54:00,12.6,-4.3,30.09,NNW,338,8.1,8.1,46,0.00,,SKC,0.00,VWS V14.01,2013-01-24 09:54:00,
2013-01-24 04:55:00,12.9,-4.0,30.06,North,0,6.3,7.8,46,0.00,,SKC,0.00,VWS V14.01,2013-01-24 09:55:00,
2013-01-24 04:56:00,12.6,-4.3,30.09,NNW,338,3.8,8.1,46,0.00,,SKC,0.00,VWS V14.01,2013-01-24 09:56:00,
2013-01-24 04:58:00,12.4,-4.4,30.09,NNW,338,3.8,7.8,46,0.00,,SKC,0.00,VWS V14.01,2013-01-24 09:58:00,
2013-01-24 05:00:00,12.9,-4.0,30.06,North,0,7.4,7.6,46,0.00,,SKC,0.00,VWS V14.01,2013-01-24 10:00:00,
2013-01-24 05:02:00,12.4,-4.4,30.09,NNW,338,8.5,10.5,46,0.00,,SKC,0.00,VWS V14.01,2013-01-24 10:02:00,
2013-01-24 05:04:00,12.4,-4.4,30.09,NNW,338,8.1,10.5,46,0.00,,SKC,0.00,VWS V14.01,2013-01-24 10:04:00,
2013-01-24 05:05:00,12.9,-4.0,30.06,North,0,10.7,10.7,46,0.00,,SKC,0.00,VWS V14.01,2013-01-24 10:05:00,
2013-01-24 05:06:00,12.4,-4.4,30.09,NW,315,6.3,11.0,46,0.00,,SKC,0.00,VWS V14.01,2013-01-24 10:06:00,
2013-01-24 05:08:00,12.4,-4.4,30.09,NNW,338,6.0,7.8,46,0.00,,SKC,0.00,VWS V14.01,2013-01-24 10:08:00,
2013-01-24 05:10:00,12.7,-4.1,30.06,NW,315,6.3,6.3,46,0.00,,SKC,0.00,VWS V14.01,2013-01-24 10:10:00,
2013-01-24 05:12:00,12.4,-4.4,30.09,NNW,338,4.0,7.6,46,0.00,,SKC,0.00,VWS V14.01,2013-01-24 10:12:00,
2013-01-24 05:14:00,12.4,-4.4,30.09,NW,315,6.3,7.8,46,0.00,,SKC,0.00,VWS V14.01,2013-01-24 10:14:00,
2013-01-24 05:15:00,12.7,-4.1,30.09,North,0,4.9,7.8,46,0.00,,SKC,0.00,VWS V14.01,2013-01-24 10:15:00,
2013-01-24 05:16:00,12.6,-4.3,30.09,NW,315,7.4,7.4,46,0.00,,SKC,0.00,VWS V14.01,2013-01-24 10:16:00,
2013-01-24 05:18:00,12.6,-4.3,30.09,NNW,338,10.3,10.3,46,0.00,,SKC,0.00,VWS V14.01,2013-01-24 10:18:00,
2013-01-24 05:20:00,12.7,-4.1,30.09,North,0,10.3,10.3,46,0.00,,SKC,0.00,VWS V14.01,2013-01-24 10:20:00,
2013-01-24 05:22:00,12.7,-4.1,30.09,North,0,8.5,8.5,46,0.00,,SKC,0.00,VWS V14.01,2013-01-24 10:22:00,
2013-01-24 05:23:00,12.7,-4.1,30.09,North,0,11.2,11.2,46,0.00,,SKC,0.00,VWS V14.01,2013-01-24 10:23:00,
2013-01-24 05:24:00,12.7,-4.1,30.09,North,0,10.5,11.2,46,0.00,,SKC,0.00,VWS V14.01,2013-01-24 10:24:00,
2013-01-24 05:25:00,12.7,-4.1,30.09,NW,315,5.6,8.1,46,0.00,,SKC,0.00,VWS V14.01,2013-01-24 10:25:00,
2013-01-24 05:26:00,12.7,-4.1,30.09,NNW,338,6.3,11.2,46,0.00,,SKC,0.00,VWS V14.01,2013-01-24 10:26:00,
2013-01-24 05:27:00,12.7,-4.1,30.09,NNW,338,6.3,11.2,46,0.00,,SKC,0.00,VWS V14.01,2013-01-24 10:27:00,
2013-01-24 05:28:00,12.7,-4.1,30.12,NNW,338,6.3,11.2,46,0.00,,SKC,0.00,VWS V14.01,2013-01-24 10:28:00,
2013-01-24 05:29:00,12.7,-4.1,30.12,NNW,338,6.3,11.2,46,0.00,,SKC,0.00,VWS V14.01,2013-01-24 10:29:00,
2013-01-24 05:30:00,12.7,-4.1,30.06,North,0,4.3,6.0,46,0.00,,SKC,0.00,VWS V14.01,2013-01-24 10:30:00,
2013-01-24 05:31:00,12.7,-4.1,30.12,NNW,338,6.3,11.2,46,0.00,,SKC,0.00,VWS V14.01,2013-01-24 10:31:00,
2013-01-24 05:32:00,12.7,-4.1,30.12,NNW,338,6.3,11.2,46,0.00,,SKC,0.00,VWS V14.01,2013-01-24 10:32:00,
2013-01-24 05:33:00,12.9,-4.0,30.12,NNW,338,6.3,11.2,46,0.00,,SKC,0.00,VWS V14.01,2013-01-24 10:33:00,
2013-01-24 05:34:00,12.9,-4.0,30.12,North,0,10.3,11.2,46,0.00,,SKC,0.00,VWS V14.01,2013-01-24 10:34:00,
2013-01-24 05:35:00,12.7,-4.1,30.06,NNW,338,7.2,9.6,46,0.00,,SKC,0.00,VWS V14.01,2013-01-24 10:35:00,
2013-01-24 05:36:00,12.9,-4.0,30.12,North,0,10.3,11.2,46,0.00,,SKC,0.00,VWS V14.01,2013-01-24 10:36:00,
2013-01-24 05:37:00,12.9,-4.0,30.12,North,0,10.3,11.2,46,0.00,,SKC,0.00,VWS V14.01,2013-01-24 10:37:00,
2013-01-24 05:38:00,12.9,-4.0,30.12,North,0,10.3,11.2,46,0.00,,SKC,0.00,VWS V14.01,2013-01-24 10:38:00,
2013-01-24 05:39:00,12.9,-4.0,30.12,NW,315,7.4,11.2,46,0.00,,SKC,0.00,VWS V14.01,2013-01-24 10:39:00,
2013-01-24 05:40:00,12.6,-4.3,30.06,NNW,338,6.5,8.7,46,0.00,,SKC,0.00,VWS V14.01,2013-01-24 10:40:00,
2013-01-24 05:41:00,12.9,-4.0,30.12,NW,315,7.4,11.2,46,0.00,,SKC,0.00,VWS V14.01,2013-01-24 10:41:00,
2013-01-24 05:42:00,12.9,-4.0,30.12,NW,315,7.4,11.2,46,0.00,,SKC,0.00,VWS V14.01,2013-01-24 10:42:00,
2013-01-24 05:43:00,12.9,-4.0,30.09,NNW,338,5.8,11.2,46,0.00,,SKC,0.00,VWS V14.01,2013-01-24 10:43:00,
2013-01-24 05:44:00,12.9,-4.0,30.09,NNW,338,5.8,11.2,46,0.00,,SKC,0.00,VWS V14.01,2013-01-24 10:44:00,
2013-01-24 05:45:00,12.6,-4.3,30.09,NNW,338,5.4,11.0,46,0.00,,SKC,0.00,VWS V14.01,2013-01-24 10:45:00,
2013-01-24 05:46:00,13.1,-3.8,30.09,NNW,338,5.8,10.3,46,0.00,,SKC,0.00,VWS V14.01,2013-01-24 10:46:00,
2013-01-24 05:47:00,13.1,-3.8,30.09,NNW,338,5.8,10.3,46,0.00,,SKC,0.00,VWS V14.01,2013-01-24 10:47:00,
2013-01-24 05:48:00,13.1,-3.8,30.09,NNW,338,5.8,10.3,46,0.00,,SKC,0.00,VWS V14.01,2013-01-24 10:48:00,
2013-01-24 05:49:00,13.1,-3.8,30.09,NNW,338,5.8,10.3,46,0.00,,SKC,0.00,VWS V14.01,2013-01-24 10:49:00,
2013-01-24 05:50:00,12.6,-4.3,30.09,NNW,338,9.6,9.6,46,0.00,,SKC,0.00,VWS V14.01,2013-01-24 10:50:00,
2013-01-24 05:51:00,13.1,-3.8,30.09,NNW,338,5.8,10.3,46,0.00,,SKC,0.00,VWS V14.01,2013-01-24 10:51:00,
2013-01-24 05:52:00,13.1,-3.8,30.09,NNW,338,5.8,10.3,46,0.00,,SKC,0.00,VWS V14.01,2013-01-24 10:52:00,
2013-01-24 05:53:00,13.1,-3.8,30.09,NNW,338,11.2,11.2,46,0.00,,SKC,0.00,VWS V14.01,2013-01-24 10:53:00,
2013-01-24 05:54:00,13.3,-3.6,30.09,NNW,338,11.2,11.2,46,0.00,,SKC,0.00,VWS V14.01,2013-01-24 10:54:00,
2013-01-24 05:55:00,12.6,-4.3,30.09,North,0,6.0,8.5,46,0.00,,SKC,0.00,VWS V14.01,2013-01-24 10:55:00,
2013-01-24 05:56:00,13.3,-3.6,30.09,NNW,338,11.2,11.2,46,0.00,,SKC,0.00,VWS V14.01,2013-01-24 10:56:00,
2013-01-24 05:58:00,13.3,-3.6,30.09,NNW,338,12.5,12.5,46,0.00,,SKC,0.00,VWS V14.01,2013-01-24 10:58:00,
2013-01-24 06:00:00,12.4,-4.4,30.09,NNW,338,6.0,6.7,46,0.00,,SKC,0.00,VWS V14.01,2013-01-24 11:00:00,
2013-01-24 06:02:00,13.3,-3.6,30.06,NNW,338,12.5,12.5,46,0.00,,SKC,0.00,VWS V14.01,2013-01-24 11:02:00,
2013-01-24 06:04:00,13.5,-3.5,30.06,NNW,338,12.5,12.5,46,0.00,,SKC,0.00,VWS V14.01,2013-01-24 11:04:00,
2013-01-24 06:05:00,12.4,-4.4,30.09,North,0,7.4,11.0,46,0.00,,SKC,0.00,VWS V14.01,2013-01-24 11:05:00,
2013-01-24 06:06:00,13.5,-3.5,30.06,NNW,338,12.5,12.5,46,0.00,,SKC,0.00,VWS V14.01,2013-01-24 11:06:00,
2013-01-24 06:08:00,13.5,-3.5,30.06,NNW,338,11.0,12.5,46,0.00,,SKC,0.00,VWS V14.01,2013-01-24 11:08:00,
2013-01-24 06:10:00,12.4,-4.4,30.09,North,0,6.0,8.1,46,0.00,,SKC,0.00,VWS V14.01,2013-01-24 11:10:00,
2013-01-24 06:12:00,13.6,-3.3,30.06,NNW,338,11.0,11.0,46,0.00,,SKC,0.00,VWS V14.01,2013-01-24 11:12:00,
2013-01-24 06:14:00,13.6,-3.3,30.06,NNW,338,8.7,11.0,46,0.00,,SKC,0.00,VWS V14.01,2013-01-24 11:14:00,
2013-01-24 06:15:00,12.4,-4.4,30.09,NNW,338,5.6,7.4,46,0.00,,SKC,0.00,VWS V14.01,2013-01-24 11:15:00,
2013-01-24 06:16:00,13.6,-3.3,30.09,NNW,338,12.8,13.0,46,0.00,,SKC,0.00,VWS V14.01,2013-01-24 11:16:00,
2013-01-24 06:18:00,13.6,-3.3,30.09,NNW,338,12.8,12.8,46,0.00,,SKC,0.00,VWS V14.01,2013-01-24 11:18:00,
2013-01-24 06:20:00,12.6,-4.3,30.09,NNW,338,6.5,10.3,46,0.00,,SKC,0.00,VWS V14.01,2013-01-24 11:20:00,
2013-01-24 06:22:00,13.6,-3.3,30.09,NNW,338,12.8,12.8,46,0.00,,SKC,0.00,VWS V14.01,2013-01-24 11:22:00,
2013-01-24 06:24:00,13.6,-3.3,30.09,NNW,338,12.8,12.8,46,0.00,,SKC,0.00,VWS V14.01,2013-01-24 11:24:00,
2013-01-24 06:26:00,13.6,-3.3,30.09,NNW,338,12.8,12.8,46,0.00,,SKC,0.00,VWS V14.01,2013-01-24 11:26:00,
2013-01-24 06:28:00,13.6,-3.3,30.09,NNW,338,12.8,12.8,46,0.00,,SKC,0.00,VWS V14.01,2013-01-24 11:28:00,
2013-01-24 06:30:00,13.6,-3.3,30.09,NNW,338,12.8,12.8,46,0.00,,SKC,0.00,VWS V14.01,2013-01-24 11:30:00,
2013-01-24 06:32:00,13.5,-3.5,30.09,NNW,338,8.1,12.8,46,0.00,,SKC,0.00,VWS V14.01,2013-01-24 11:32:00,
2013-01-24 06:34:00,13.6,-3.3,30.09,NNW,338,8.1,8.1,46,0.00,,SKC,0.00,VWS V14.01,2013-01-24 11:34:00,
2013-01-24 06:36:00,13.6,-3.3,30.09,NNW,338,8.1,8.1,46,0.00,,SKC,0.00,VWS V14.01,2013-01-24 11:36:00,
2013-01-24 06:38:00,13.6,-3.3,30.09,NW,315,13.2,13.2,46,0.00,,SKC,0.00,VWS V14.01,2013-01-24 11:38:00,
2013-01-24 06:40:00,13.6,-3.3,30.09,NW,315,13.2,13.2,46,0.00,,SKC,0.00,VWS V14.01,2013-01-24 11:40:00,
2013-01-24 06:42:00,13.6,-3.3,30.09,NW,315,13.2,13.2,46,0.00,,SKC,0.00,VWS V14.01,2013-01-24 11:42:00,
2013-01-24 06:44:00,13.6,-3.3,30.06,North,0,9.8,13.2,46,0.00,,SKC,0.00,VWS V14.01,2013-01-24 11:44:00,
2013-01-24 06:46:00,13.6,-3.3,30.06,NW,315,8.1,16.8,46,0.00,,SKC,0.00,VWS V14.01,2013-01-24 11:46:00,
2013-01-24 06:48:00,13.8,-3.1,30.06,NW,315,10.7,14.3,46,0.00,,SKC,0.00,VWS V14.01,2013-01-24 11:48:00,
2013-01-24 06:50:00,13.8,-3.1,30.06,NNW,338,12.3,12.8,46,0.00,,SKC,0.00,VWS V14.01,2013-01-24 11:50:00,
2013-01-24 06:52:00,13.8,-3.1,30.06,North,0,10.7,11.2,46,0.00,,SKC,0.00,VWS V14.01,2013-01-24 11:52:00,
2013-01-24 06:54:00,13.6,-3.3,30.06,North,0,12.1,12.1,46,0.00,,SKC,0.00,VWS V14.01,2013-01-24 11:54:00,
2013-01-24 06:56:00,13.3,-3.6,30.09,NNW,338,11.2,11.2,46,0.00,,SKC,0.00,VWS V14.01,2013-01-24 11:56:00,
2013-01-24 06:58:00,13.6,-3.3,30.06,North,0,10.3,15.2,46,0.00,,SKC,0.00,VWS V14.01,2013-01-24 11:58:00,
2013-01-24 07:00:00,13.3,-3.6,30.06,NNW,338,12.5,12.5,46,0.00,,SKC,0.00,VWS V14.01,2013-01-24 12:00:00,
2013-01-24 07:02:00,13.6,-3.3,30.09,NNW,338,10.3,10.7,46,0.00,,SKC,0.00,VWS V14.01,2013-01-24 12:02:00,
2013-01-24 07:04:00,13.6,-3.3,30.09,NNW,338,10.7,14.8,46,0.00,,SKC,0.00,VWS V14.01,2013-01-24 12:04:00,
2013-01-24 07:06:00,13.5,-3.5,30.06,NNW,338,12.5,12.5,46,0.00,,SKC,0.00,VWS V14.01,2013-01-24 12:06:00,
2013-01-24 07:08:00,13.6,-3.3,30.09,NW,315,7.8,14.5,46,0.00,,SKC,0.00,VWS V14.01,2013-01-24 12:08:00,
2013-01-24 07:10:00,13.6,-3.3,30.09,NNW,338,12.5,15.2,46,0.00,,SKC,0.00,VWS V14.01,2013-01-24 12:10:00,
2013-01-24 07:11:00,13.6,-3.3,30.06,NNW,338,11.0,11.0,46,0.00,,SKC,0.00,VWS V14.01,2013-01-24 12:11:00,
2013-01-24 07:12:00,13.6,-3.3,30.09,NW,315,8.5,15.2,46,0.00,,SKC,0.00,VWS V14.01,2013-01-24 12:12:00,
2013-01-24 07:14:00,13.8,-3.1,30.06,NNW,338,14.8,14.8,46,0.00,,SKC,0.00,VWS V14.01,2013-01-24 12:14:00,
2013-01-24 07:16:00,13.6,-3.3,30.09,NNW,338,12.8,13.0,46,0.00,,SKC,0.00,VWS V14.01,2013-01-24 12:16:00,
2013-01-24 07:18:00,13.8,-3.1,30.06,NNW,338,12.3,15.7,46,0.00,,SKC,0.00,VWS V14.01,2013-01-24 12:18:00,
2013-01-24 07:20:00,13.8,-3.1,30.06,North,0,13.0,15.4,46,0.00,,SKC,0.00,VWS V14.01,2013-01-24 12:20:00,
2013-01-24 07:21:00,13.6,-3.3,30.09,NNW,338,12.8,12.8,46,0.00,,SKC,0.00,VWS V14.01,2013-01-24 12:21:00,
2013-01-24 07:22:00,13.8,-3.1,30.06,NNW,338,10.5,17.9,46,0.00,,SKC,0.00,VWS V14.01,2013-01-24 12:22:00,
2013-01-24 07:26:00,13.6,-3.3,30.09,NNW,338,12.8,12.8,46,0.00,,SKC,0.00,VWS V14.01,2013-01-24 12:26:00,
2013-01-24 07:28:00,14.0,-1.2,30.06,NNW,338,13.6,17.0,50,0.00,,SKC,0.00,VWS V14.01,2013-01-24 12:28:00,
2013-01-24 07:30:00,14.0,-1.2,30.09,NNW,338,14.5,16.6,50,0.00,,SKC,0.00,VWS V14.01,2013-01-24 12:30:00,
2013-01-24 07:31:00,13.6,-3.3,30.09,NNW,338,8.1,12.8,46,0.00,,SKC,0.00,VWS V14.01,2013-01-24 12:31:00,
2013-01-24 07:32:00,13.8,-1.4,30.09,NNW,338,13.2,14.8,50,0.00,,SKC,0.00,VWS V14.01,2013-01-24 12:32:00,
2013-01-24 07:34:00,14.0,-1.2,30.09,NNW,338,13.9,14.3,50,0.00,,SKC,0.00,VWS V14.01,2013-01-24 12:34:00,
2013-01-24 07:36:00,13.6,-3.3,30.09,NNW,338,8.1,8.1,46,0.00,,SKC,0.00,VWS V14.01,2013-01-24 12:36:00,
2013-01-24 07:38:00,14.0,-1.2,30.09,NNW,338,11.2,17.5,50,0.00,,SKC,0.00,VWS V14.01,2013-01-24 12:38:00,
2013-01-24 07:40:00,14.2,-1.0,30.09,NNW,338,8.7,12.5,50,0.00,,SKC,0.00,VWS V14.01,2013-01-24 12:40:00,
2013-01-24 07:41:00,13.6,-3.3,30.09,NW,315,13.2,13.2,46,0.00,,SKC,0.00,VWS V14.01,2013-01-24 12:41:00,
2013-01-24 07:42:00,14.2,-1.5,30.09,NNW,338,10.5,13.0,49,0.00,,SKC,0.00,VWS V14.01,2013-01-24 12:42:00,
2013-01-24 07:44:00,14.2,-1.5,30.09,NNW,338,7.8,19.7,49,0.00,,SKC,0.00,VWS V14.01,2013-01-24 12:44:00,
2013-01-24 07:46:00,13.8,-3.1,30.06,NW,315,8.1,16.8,46,0.00,,SKC,0.00,VWS V14.01,2013-01-24 12:46:00,
2013-01-24 07:48:00,14.4,-0.9,30.09,NW,315,8.1,14.5,50,0.00,,SKC,0.00,VWS V14.01,2013-01-24 12:48:00,
2013-01-24 07:50:00,14.4,-0.9,30.09,NW,315,13.0,15.2,50,0.00,,SKC,0.00,VWS V14.01,2013-01-24 12:50:00,
2013-01-24 07:51:00,13.8,-3.1,30.06,NW,315,10.7,12.3,46,0.00,,SKC,0.00,VWS V14.01,2013-01-24 12:51:00,
2013-01-24 07:52:00,14.4,-0.9,30.09,NW,315,14.5,14.5,50,0.00,,SKC,0.00,VWS V14.01,2013-01-24 12:52:00,
2013-01-24 07:54:00,14.4,-0.9,30.09,NNW,338,16.1,16.1,50,0.00,,SKC,0.00,VWS V14.01,2013-01-24 12:54:00,
2013-01-24 07:56:00,13.6,-3.3,30.06,NNW,338,8.1,13.0,46,0.00,,SKC,0.00,VWS V14.01,2013-01-24 12:56:00,
2013-01-24 07:58:00,14.4,-0.9,30.09,NW,315,10.5,10.5,50,0.00,,SKC,0.00,VWS V14.01,2013-01-24 12:58:00,
2013-01-24 08:00:00,14.5,-0.3,30.09,North,0,11.2,13.2,51,0.00,,SKC,0.00,VWS V14.01,2013-01-24 13:00:00,
2013-01-24 08:01:00,13.6,-3.3,30.09,NNE,22,8.5,13.2,46,0.00,,SKC,0.00,VWS V14.01,2013-01-24 13:01:00,
2013-01-24 08:02:00,14.4,-0.9,30.09,North,0,14.3,19.2,50,0.00,,SKC,0.00,VWS V14.01,2013-01-24 13:02:00,
2013-01-24 08:04:00,14.4,-0.9,30.09,NNW,338,12.1,15.7,50,0.00,,SKC,0.00,VWS V14.01,2013-01-24 13:04:00,
2013-01-24 08:06:00,13.6,-3.3,30.09,NNW,338,10.5,13.2,46,0.00,,SKC,0.00,VWS V14.01,2013-01-24 13:06:00,
2013-01-24 08:08:00,14.4,-0.9,30.09,NW,315,10.5,15.2,50,0.00,,SKC,0.00,VWS V14.01,2013-01-24 13:08:00,
2013-01-24 08:10:00,14.5,-0.7,30.09,NNW,338,10.7,10.7,50,0.00,,SKC,0.00,VWS V14.01,2013-01-24 13:10:00,
2013-01-24 08:11:00,13.6,-3.3,30.09,North,0,15.2,15.4,46,0.00,,SKC,0.00,VWS V14.01,2013-01-24 13:11:00,
2013-01-24 08:12:00,14.5,-0.7,30.09,WNW,292,10.5,12.8,50,0.00,,SKC,0.00,VWS V14.01,2013-01-24 13:12:00,
2013-01-24 08:14:00,14.7,-0.1,30.12,NNW,338,8.5,13.4,51,0.00,,SKC,0.00,VWS V14.01,2013-01-24 13:14:00,
2013-01-24 08:16:00,13.8,-3.1,30.06,North,0,12.1,15.4,46,0.00,,SKC,0.00,VWS V14.01,2013-01-24 13:16:00,
2013-01-24 08:18:00,14.9,0.1,30.12,NW,315,10.1,16.1,51,0.00,,SKC,0.00,VWS V14.01,2013-01-24 13:18:00,
2013-01-24 08:20:00,14.9,0.1,30.12,NW,315,10.3,14.5,51,0.00,,SKC,0.00,VWS V14.01,2013-01-24 13:20:00,
2013-01-24 08:21:00,13.8,-3.1,30.06,North,0,17.9,17.9,46,0.00,,SKC,0.00,VWS V14.01,2013-01-24 13:21:00,
2013-01-24 08:22:00,15.1,0.2,30.12,NW,315,10.5,12.1,51,0.00,,SKC,0.00,VWS V14.01,2013-01-24 13:22:00,
2013-01-24 08:24:00,15.1,0.2,30.12,NNW,338,7.8,16.8,51,0.00,,SKC,0.00,VWS V14.01,2013-01-24 13:24:00,
2013-01-24 08:26:00,13.8,-3.1,30.06,NE,45,11.2,11.2,46,0.00,,SKC,0.00,VWS V14.01,2013-01-24 13:26:00,
2013-01-24 08:28:00,15.1,-0.2,30.12,NW,315,13.0,22.8,50,0.00,,SKC,0.00,VWS V14.01,2013-01-24 13:28:00,
2013-01-24 08:30:00,15.3,0.0,30.12,NW,315,13.0,17.2,50,0.00,,SKC,0.00,VWS V14.01,2013-01-24 13:30:00,
2013-01-24 08:31:00,13.8,-1.4,30.09,North,0,7.4,14.8,50,0.00,,SKC,0.00,VWS V14.01,2013-01-24 13:31:00,
2013-01-24 08:32:00,15.3,0.0,30.12,NNW,338,10.7,15.2,50,0.00,,SKC,0.00,VWS V14.01,2013-01-24 13:32:00,
2013-01-24 08:34:00,15.4,0.6,30.12,NW,315,15.2,17.9,51,0.00,,SKC,0.00,VWS V14.01,2013-01-24 13:34:00,
2013-01-24 08:36:00,14.0,-1.2,30.09,NW,315,13.2,20.4,50,0.00,,SKC,0.00,VWS V14.01,2013-01-24 13:36:00,
2013-01-24 08:38:00,15.3,0.0,30.12,North,0,12.1,19.0,50,0.00,,SKC,0.00,VWS V14.01,2013-01-24 13:38:00,
2013-01-24 08:40:00,15.4,0.6,30.12,NNW,338,10.1,13.9,51,0.00,,SKC,0.00,VWS V14.01,2013-01-24 13:40:00,
2013-01-24 08:41:00,14.2,-1.0,30.09,NNW,338,10.3,13.0,50,0.00,,SKC,0.00,VWS V14.01,2013-01-24 13:41:00,
2013-01-24 08:42:00,15.4,0.1,30.12,NW,315,9.6,15.7,50,0.00,,SKC,0.00,VWS V14.01,2013-01-24 13:42:00,
2013-01-24 08:44:00,15.6,0.3,30.12,NW,315,10.3,13.0,50,0.00,,SKC,0.00,VWS V14.01,2013-01-24 13:44:00,
2013-01-24 08:46:00,14.2,-1.0,30.09,NNW,338,13.9,14.8,50,0.00,,SKC,0.00,VWS V14.01,2013-01-24 13:46:00,
2013-01-24 08:48:00,15.6,0.3,30.12,North,0,18.8,18.8,50,0.00,,SKC,0.00,VWS V14.01,2013-01-24 13:48:00,
2013-01-24 08:50:00,15.4,0.1,30.12,NW,315,16.8,17.2,50,0.00,,SKC,0.00,VWS V14.01,2013-01-24 13:50:00,
2013-01-24 08:51:00,14.4,-0.9,30.09,North,0,10.5,12.1,50,0.00,,SKC,0.00,VWS V14.01,2013-01-24 13:51:00,
2013-01-24 08:52:00,15.4,0.1,30.12,NW,315,8.1,15.4,50,0.00,,SKC,0.00,VWS V14.01,2013-01-24 13:52:00,
2013-01-24 08:54:00,15.4,0.1,30.12,NW,315,13.0,13.0,50,0.00,,SKC,0.00,VWS V14.01,2013-01-24 13:54:00,
2013-01-24 08:56:00,14.4,-0.9,30.09,NNW,338,10.5,23.0,50,0.00,,SKC,0.00,VWS V14.01,2013-01-24 13:56:00,
2013-01-24 08:58:00,15.4,-0.3,30.12,North,0,15.2,18.1,49,0.00,,SKC,0.00,VWS V14.01,2013-01-24 13:58:00,
2013-01-24 09:00:00,15.4,-0.3,30.12,North,0,13.4,17.5,49,0.00,,SKC,0.00,VWS V14.01,2013-01-24 14:00:00,
2013-01-24 09:01:00,14.5,-0.3,30.09,NW,315,16.3,16.6,51,0.00,,SKC,0.00,VWS V14.01,2013-01-24 14:01:00,
2013-01-24 09:02:00,15.4,-0.3,30.12,NW,315,15.4,17.5,49,0.00,,SKC,0.00,VWS V14.01,2013-01-24 14:02:00,
2013-01-24 09:04:00,15.4,0.1,30.12,NW,315,13.0,16.8,50,0.00,,SKC,0.00,VWS V14.01,2013-01-24 14:04:00,
2013-01-24 09:06:00,14.4,-0.9,30.09,NNW,338,13.2,14.8,50,0.00,,SKC,0.00,VWS V14.01,2013-01-24 14:06:00,
2013-01-24 09:08:00,15.4,0.1,30.12,NNW,338,14.3,14.3,50,0.00,,SKC,0.00,VWS V14.01,2013-01-24 14:08:00,
2013-01-24 09:10:00,15.8,0.9,30.12,West,270,13.2,15.2,51,0.00,,SKC,0.00,VWS V14.01,2013-01-24 14:10:00,
2013-01-24 09:11:00,14.5,-0.7,30.09,NNW,338,7.6,17.2,50,0.00,,SKC,0.00,VWS V14.01,2013-01-24 14:11:00,
2013-01-24 09:12:00,16.0,0.6,30.12,NNW,338,12.8,15.7,50,0.00,,SKC,0.00,VWS V14.01,2013-01-24 14:12:00,
2013-01-24 09:14:00,15.8,0.5,30.12,NW,315,17.0,17.0,50,0.00,,SKC,0.00,VWS V14.01,2013-01-24 14:14:00,
2013-01-24 09:16:00,14.9,-0.4,30.12,NW,315,14.8,18.8,50,0.00,,SKC,0.00,VWS V14.01,2013-01-24 14:16:00,
2013-01-24 09:18:00,15.8,0.5,30.12,NNW,338,12.5,12.8,50,0.00,,SKC,0.00,VWS V14.01,2013-01-24 14:18:00,
2013-01-24 09:20:00,16.0,0.2,30.12,NW,315,10.1,14.1,49,0.00,,SKC,0.00,VWS V14.01,2013-01-24 14:20:00,
2013-01-24 09:21:00,15.1,0.2,30.12,NW,315,10.1,12.1,51,0.00,,SKC,0.00,VWS V14.01,2013-01-24 14:21:00,
2013-01-24 09:22:00,16.0,0.2,30.12,NW,315,14.5,14.5,49,0.00,,SKC,0.00,VWS V14.01,2013-01-24 14:22:00,
2013-01-24 09:24:00,15.8,0.0,30.12,NW,315,7.8,12.8,49,0.00,,SKC,0.00,VWS V14.01,2013-01-24 14:24:00,
2013-01-24 09:26:00,15.1,-0.2,30.12,NNW,338,12.5,12.8,50,0.00,,SKC,0.00,VWS V14.01,2013-01-24 14:26:00,
2013-01-24 09:28:00,15.8,-0.4,30.12,NNW,338,16.8,16.8,48,0.00,,SKC,0.00,VWS V14.01,2013-01-24 14:28:00,
2013-01-24 09:31:00,15.3,0.0,30.12,NW,315,8.7,15.2,50,0.00,,SKC,0.00,VWS V14.01,2013-01-24 14:31:00,
2013-01-24 09:32:00,15.8,0.0,30.12,NW,315,17.7,17.7,49,0.00,,SKC,0.00,VWS V14.01,2013-01-24 14:32:00,
2013-01-24 09:34:00,15.8,-0.4,30.12,NNW,338,11.0,14.8,48,0.00,,SKC,0.00,VWS V14.01,2013-01-24 14:34:00,
2013-01-24 09:36:00,15.3,0.0,30.12,NW,315,19.0,19.0,50,0.00,,SKC,0.00,VWS V14.01,2013-01-24 14:36:00,
2013-01-24 09:38:00,15.8,-0.4,30.12,North,0,12.8,12.8,48,0.00,,SKC,0.00,VWS V14.01,2013-01-24 14:38:00,
2013-01-24 09:40:00,15.8,-0.4,30.12,WNW,292,10.7,12.8,48,0.00,,SKC,0.00,VWS V14.01,2013-01-24 14:40:00,
2013-01-24 09:41:00,15.4,0.1,30.12,NW,315,13.2,15.7,50,0.00,,SKC,0.00,VWS V14.01,2013-01-24 14:41:00,
2013-01-24 09:42:00,16.0,-0.2,30.12,NW,315,10.1,13.2,48,0.00,,SKC,0.00,VWS V14.01,2013-01-24 14:42:00,
2013-01-24 09:44:00,16.0,-0.2,30.12,NNW,338,13.2,13.2,48,0.00,,SKC,0.00,VWS V14.01,2013-01-24 14:44:00,
2013-01-24 09:46:00,15.6,0.3,30.12,NNW,338,10.5,14.5,50,0.00,,SKC,0.00,VWS V14.01,2013-01-24 14:46:00,
2013-01-24 09:48:00,16.2,-0.1,30.12,WNW,292,7.6,10.3,48,0.00,,SKC,0.00,VWS V14.01,2013-01-24 14:48:00,
2013-01-24 09:50:00,16.5,0.7,30.12,NW,315,14.5,14.5,49,0.00,,SKC,0.00,VWS V14.01,2013-01-24 14:50:00,
2013-01-24 09:51:00,15.4,0.1,30.12,NW,315,12.3,15.4,50,0.00,,SKC,0.00,VWS V14.01,2013-01-24 14:51:00,
2013-01-24 09:52:00,16.5,0.3,30.12,NW,315,15.2,17.0,48,0.00,,SKC,0.00,VWS V14.01,2013-01-24 14:52:00,
2013-01-24 09:54:00,16.5,-0.2,30.12,NW,315,11.0,13.9,47,0.00,,SKC,0.00,VWS V14.01,2013-01-24 14:54:00,
2013-01-24 09:56:00,15.4,-0.3,30.12,NNW,338,17.9,18.8,49,0.00,,SKC,0.00,VWS V14.01,2013-01-24 14:56:00,
2013-01-24 09:58:00,16.5,0.3,30.12,NNW,338,17.0,17.0,48,0.00,,SKC,0.00,VWS V14.01,2013-01-24 14:58:00,
2013-01-24 10:00:00,16.3,-0.3,30.09,NW,315,15.2,15.4,47,0.00,,SKC,0.00,VWS V14.01,2013-01-24 15:00:00,
2013-01-24 10:01:00,15.4,-0.3,30.12,NNW,338,17.5,17.5,49,0.00,,SKC,0.00,VWS V14.01,2013-01-24 15:01:00,
2013-01-24 10:02:00,16.3,-0.3,30.09,NW,315,12.5,12.5,47,0.00,,SKC,0.00,VWS V14.01,2013-01-24 15:02:00,
2013-01-24 10:04:00,16.5,0.3,30.09,NW,315,12.5,14.3,48,0.00,,SKC,0.00,VWS V14.01,2013-01-24 15:04:00,
2013-01-24 10:06:00,15.4,0.1,30.12,NNW,338,8.1,11.2,50,0.00,,SKC,0.00,VWS V14.01,2013-01-24 15:06:00,
2013-01-24 10:08:00,16.5,-0.2,30.09,NNW,338,8.7,15.2,47,0.00,,SKC,0.00,VWS V14.01,2013-01-24 15:08:00,
2013-01-24 10:10:00,16.7,0.0,30.09,North,0,14.8,17.7,47,0.00,,SKC,0.00,VWS V14.01,2013-01-24 15:10:00,
2013-01-24 10:11:00,15.8,0.9,30.12,NW,315,15.7,15.7,51,0.00,,SKC,0.00,VWS V14.01,2013-01-24 15:11:00,
2013-01-24 10:12:00,16.9,0.2,30.09,NNW,338,11.0,17.0,47,0.00,,SKC,0.00,VWS V14.01,2013-01-24 15:12:00,
2013-01-24 10:14:00,16.9,0.2,30.09,North,0,7.8,19.5,47,0.00,,SKC,0.00,VWS V14.01,2013-01-24 15:14:00,
2013-01-24 10:16:00,15.8,0.5,30.12,NW,315,12.8,13.0,50,0.00,,SKC,0.00,VWS V14.01,2013-01-24 15:16:00,
2013-01-24 10:18:00,17.1,0.3,30.09,NNW,338,10.5,13.0,47,0.00,,SKC,0.00,VWS V14.01,2013-01-24 15:18:00,
2013-01-24 10:20:00,17.1,0.3,30.09,NW,315,15.2,17.5,47,0.00,,SKC,0.00,VWS V14.01,2013-01-24 15:20:00,
2013-01-24 10:21:00,16.0,0.2,30.12,NNW,338,8.1,14.5,49,0.00,,SKC,0.00,VWS V14.01,2013-01-24 15:21:00,
2013-01-24 10:22:00,17.2,0.5,30.09,NNW,338,17.7,17.7,47,0.00,,SKC,0.00,VWS V14.01,2013-01-24 15:22:00,
2013-01-24 10:24:00,17.2,0.5,30.09,NW,315,16.1,16.1,47,0.00,,SKC,0.00,VWS V14.01,2013-01-24 15:24:00,
2013-01-24 10:26:00,15.8,0.0,30.12,NW,315,15.4,18.8,49,0.00,,SKC,0.00,VWS V14.01,2013-01-24 15:26:00,
2013-01-24 10:28:00,17.6,0.8,30.09,NW,315,15.4,17.7,47,0.00,,SKC,0.00,VWS V14.01,2013-01-24 15:28:00,
2013-01-24 10:30:00,17.4,0.2,30.09,NNW,338,15.7,19.9,46,0.00,,SKC,0.00,VWS V14.01,2013-01-24 15:30:00,
2013-01-24 10:31:00,15.8,0.0,30.12,NW,315,10.1,16.8,49,0.00,,SKC,0.00,VWS V14.01,2013-01-24 15:31:00,
2013-01-24 10:32:00,17.4,0.2,30.09,NNW,338,15.2,22.2,46,0.00,,SKC,0.00,VWS V14.01,2013-01-24 15:32:00,
2013-01-24 10:34:00,17.4,-0.3,30.09,NNW,338,13.9,15.4,45,0.00,,SKC,0.00,VWS V14.01,2013-01-24 15:34:00,
2013-01-24 10:36:00,15.8,-0.4,30.12,WNW,292,7.8,14.8,48,0.00,,SKC,0.00,VWS V14.01,2013-01-24 15:36:00,
2013-01-24 10:38:00,17.4,0.2,30.09,NNW,338,11.4,15.2,46,0.00,,SKC,0.00,VWS V14.01,2013-01-24 15:38:00,
2013-01-24 10:40:00,17.4,0.2,30.09,NW,315,19.7,19.7,46,0.00,,SKC,0.00,VWS V14.01,2013-01-24 15:40:00,
2013-01-24 10:41:00,16.0,-0.2,30.12,WNW,292,10.7,13.2,48,0.00,,SKC,0.00,VWS V14.01,2013-01-24 15:41:00,
2013-01-24 10:42:00,17.4,0.2,30.09,North,0,11.0,15.9,46,0.00,,SKC,0.00,VWS V14.01,2013-01-24 15:42:00,
2013-01-24 10:44:00,17.4,0.2,30.06,NW,315,14.8,17.0,46,0.00,,SKC,0.00,VWS V14.01,2013-01-24 15:44:00,
2013-01-24 10:46:00,16.2,-0.1,30.12,NW,315,11.9,12.1,48,0.00,,SKC,0.00,VWS V14.01,2013-01-24 15:46:00,
2013-01-24 10:48:00,17.4,-0.3,30.06,NW,315,14.3,14.8,45,0.00,,SKC,0.00,VWS V14.01,2013-01-24 15:48:00,
2013-01-24 10:50:00,17.6,-0.1,30.06,North,0,17.2,17.2,45,0.00,,SKC,0.00,VWS V14.01,2013-01-24 15:50:00,
2013-01-24 10:51:00,16.5,0.3,30.12,NW,315,15.2,17.0,48,0.00,,SKC,0.00,VWS V14.01,2013-01-24 15:51:00,
2013-01-24 10:52:00,17.6,-0.1,30.06,NW,315,13.2,15.4,45,0.00,,SKC,0.00,VWS V14.01,2013-01-24 15:52:00,
2013-01-24 10:54:00,17.6,-0.1,30.06,North,0,12.8,20.4,45,0.00,,SKC,0.00,VWS V14.01,2013-01-24 15:54:00,
2013-01-24 10:56:00,16.5,0.3,30.12,NW,315,12.1,12.1,48,0.00,,SKC,0.00,VWS V14.01,2013-01-24 15:56:00,
2013-01-24 10:58:00,17.6,-0.1,30.06,NW,315,11.4,14.5,45,0.00,,SKC,0.00,VWS V14.01,2013-01-24 15:58:00,
2013-01-24 11:00:00,17.6,-0.1,30.09,NW,315,16.1,19.5,45,0.00,,SKC,0.00,VWS V14.01,2013-01-24 16:00:00,
2013-01-24 11:01:00,16.3,-0.3,30.09,NW,315,10.5,12.5,47,0.00,,SKC,0.00,VWS V14.01,2013-01-24 16:01:00,
2013-01-24 11:02:00,17.6,-0.1,30.09,NW,315,17.5,17.9,45,0.00,,SKC,0.00,VWS V14.01,2013-01-24 16:02:00,
2013-01-24 11:04:00,17.8,-0.4,30.09,NNW,338,10.1,15.2,44,0.00,,SKC,0.00,VWS V14.01,2013-01-24 16:04:00,
2013-01-24 11:06:00,16.7,0.0,30.09,NW,315,11.0,19.9,47,0.00,,SKC,0.00,VWS V14.01,2013-01-24 16:06:00,
2013-01-24 11:08:00,17.8,-0.4,30.09,NW,315,12.8,21.5,44,0.00,,SKC,0.00,VWS V14.01,2013-01-24 16:08:00,
2013-01-24 11:10:00,17.8,-0.4,30.09,NW,315,14.8,14.8,44,0.00,,SKC,0.00,VWS V14.01,2013-01-24 16:10:00,
2013-01-24 11:11:00,16.9,0.6,30.09,NW,315,17.0,17.0,48,0.00,,SKC,0.00,VWS V14.01,2013-01-24 16:11:00,
2013-01-24 11:12:00,18.0,-0.3,30.09,NW,315,20.1,20.1,44,0.00,,SKC,0.00,VWS V14.01,2013-01-24 16:12:00,
2013-01-24 11:14:00,17.8,-0.4,30.06,NW,315,17.9,18.6,44,0.00,,SKC,0.00,VWS V14.01,2013-01-24 16:14:00,
2013-01-24 11:16:00,16.9,-0.3,30.09,NW,315,13.0,19.7,46,0.00,,SKC,0.00,VWS V14.01,2013-01-24 16:16:00,
2013-01-24 11:18:00,18.0,-0.3,30.06,NW,315,15.2,17.5,44,0.00,,SKC,0.00,VWS V14.01,2013-01-24 16:18:00,
2013-01-24 11:20:00,18.1,-0.1,30.06,NNW,338,10.7,16.8,44,0.00,,SKC,0.00,VWS V14.01,2013-01-24 16:20:00,
2013-01-24 11:21:00,17.2,0.5,30.09,NNW,338,17.7,17.7,47,0.00,,SKC,0.00,VWS V14.01,2013-01-24 16:21:00,
2013-01-24 11:22:00,18.3,0.1,30.06,NW,315,15.2,15.2,44,0.00,,SKC,0.00,VWS V14.01,2013-01-24 16:22:00,
2013-01-24 11:24:00,18.3,0.1,30.06,NNW,338,11.2,16.6,44,0.00,,SKC,0.00,VWS V14.01,2013-01-24 16:24:00,
2013-01-24 11:26:00,17.4,0.6,30.09,NW,315,12.8,12.8,47,0.00,,SKC,0.00,VWS V14.01,2013-01-24 16:26:00,
2013-01-24 11:28:00,18.5,0.2,30.06,NW,315,9.2,13.0,44,0.00,,SKC,0.00,VWS V14.01,2013-01-24 16:28:00,
2013-01-24 11:30:00,18.5,0.2,30.09,NNW,338,8.7,12.5,44,0.00,,SKC,0.00,VWS V14.01,2013-01-24 16:30:00,
2013-01-24 11:31:00,17.4,0.2,30.09,NNW,338,15.2,22.2,46,0.00,,SKC,0.00,VWS V14.01,2013-01-24 16:31:00,
2013-01-24 11:32:00,18.7,0.4,30.09,NNW,338,12.5,14.8,44,0.00,,SKC,0.00,VWS V14.01,2013-01-24 16:32:00,
2013-01-24 11:34:00,18.7,0.4,30.09,NW,315,12.3,15.7,44,0.00,,SKC,0.00,VWS V14.01,2013-01-24 16:34:00,
2013-01-24 11:36:00,17.4,-0.3,30.09,NNW,338,8.5,16.3,45,0.00,,SKC,0.00,VWS V14.01,2013-01-24 16:36:00,
2013-01-24 11:38:00,18.7,0.4,30.09,NW,315,11.9,13.2,44,0.00,,SKC,0.00,VWS V14.01,2013-01-24 16:38:00,
2013-01-24 11:40:00,18.7,0.4,30.09,WNW,292,13.4,13.4,44,0.00,,SKC,0.00,VWS V14.01,2013-01-24 16:40:00,
2013-01-24 11:41:00,17.4,0.2,30.09,North,0,11.0,15.9,46,0.00,,SKC,0.00,VWS V14.01,2013-01-24 16:41:00,
2013-01-24 11:42:00,18.9,0.6,30.09,North,0,11.9,12.8,44,0.00,,SKC,0.00,VWS V14.01,2013-01-24 16:42:00,
2013-01-24 11:44:00,18.9,0.6,30.06,NW,315,14.8,14.8,44,0.00,,SKC,0.00,VWS V14.01,2013-01-24 16:44:00,
2013-01-24 11:46:00,17.4,-0.3,30.06,NW,315,10.3,14.8,45,0.00,,SKC,0.00,VWS V14.01,2013-01-24 16:46:00,
2013-01-24 11:48:00,19.0,0.7,30.06,WNW,292,5.6,10.5,44,0.00,,SKC,0.00,VWS V14.01,2013-01-24 16:48:00,
2013-01-24 11:50:00,19.0,1.2,30.06,NNW,338,10.5,11.2,45,0.00,,SKC,0.00,VWS V14.01,2013-01-24 16:50:00,
2013-01-24 11:51:00,17.6,-0.1,30.06,NW,315,13.2,15.4,45,0.00,,SKC,0.00,VWS V14.01,2013-01-24 16:51:00,
2013-01-24 11:52:00,19.2,1.4,30.06,NW,315,8.1,12.5,45,0.00,,SKC,0.00,VWS V14.01,2013-01-24 16:52:00,
2013-01-24 11:54:00,19.2,1.4,30.06,NW,315,11.2,17.7,45,0.00,,SKC,0.00,VWS V14.01,2013-01-24 16:54:00,
2013-01-24 11:56:00,17.6,-0.1,30.06,NW,315,13.2,17.2,45,0.00,,SKC,0.00,VWS V14.01,2013-01-24 16:56:00,
2013-01-24 11:58:00,19.4,1.5,30.06,NW,315,8.7,17.5,45,0.00,,SKC,0.00,VWS V14.01,2013-01-24 16:58:00,
2013-01-24 12:00:00,19.4,1.5,30.09,NNW,338,12.5,15.7,45,0.00,,SKC,0.00,VWS V14.01,2013-01-24 17:00:00,
2013-01-24 12:02:00,17.6,-0.1,30.09,NW,315,17.5,17.9,45,0.00,,SKC,0.00,VWS V14.01,2013-01-24 17:02:00,
2013-01-24 12:04:00,19.6,1.2,30.09,NNW,338,11.2,15.4,44,0.00,,SKC,0.00,VWS V14.01,2013-01-24 17:04:00,
2013-01-24 12:06:00,19.6,1.2,30.09,NW,315,17.7,17.7,44,0.00,,SKC,0.00,VWS V14.01,2013-01-24 17:06:00,
2013-01-24 12:07:00,17.8,-0.4,30.09,NW,315,19.7,21.5,44,0.00,,SKC,0.00,VWS V14.01,2013-01-24 17:07:00,
2013-01-24 12:08:00,19.8,1.4,30.09,NW,315,17.7,21.0,44,0.00,,SKC,0.00,VWS V14.01,2013-01-24 17:08:00,
2013-01-24 12:10:00,19.8,1.4,30.09,NNW,338,13.2,15.4,44,0.00,,SKC,0.00,VWS V14.01,2013-01-24 17:10:00,
2013-01-24 12:12:00,18.0,-0.3,30.09,NW,315,20.1,20.1,44,0.00,,SKC,0.00,VWS V14.01,2013-01-24 17:12:00,
2013-01-24 12:14:00,19.8,1.4,30.09,NW,315,17.7,17.7,44,0.00,,SKC,0.00,VWS V14.01,2013-01-24 17:14:00,
2013-01-24 12:16:00,19.8,1.4,30.09,NW,315,11.2,15.4,44,0.00,,SKC,0.00,VWS V14.01,2013-01-24 17:16:00,
2013-01-24 12:17:00,17.8,-0.4,30.06,NW,315,15.2,15.2,44,0.00,,SKC,0.00,VWS V14.01,2013-01-24 17:17:00,
2013-01-24 12:18:00,19.8,1.4,30.09,NW,315,11.9,17.2,44,0.00,,SKC,0.00,VWS V14.01,2013-01-24 17:18:00,
2013-01-24 12:20:00,19.9,1.5,30.09,NW,315,9.6,13.2,44,0.00,,SKC,0.00,VWS V14.01,2013-01-24 17:20:00,
2013-01-24 12:22:00,18.3,0.1,30.06,NW,315,15.2,15.2,44,0.00,,SKC,0.00,VWS V14.01,2013-01-24 17:22:00,
2013-01-24 12:24:00,19.9,1.5,30.09,NW,315,10.5,16.6,44,0.00,,SKC,0.00,VWS V14.01,2013-01-24 17:24:00,
2013-01-24 12:26:00,19.9,1.5,30.09,NW,315,12.1,16.8,44,0.00,,SKC,0.00,VWS V14.01,2013-01-24 17:26:00,
2013-01-24 12:27:00,18.3,0.1,30.06,NW,315,12.3,15.2,44,0.00,,SKC,0.00,VWS V14.01,2013-01-24 17:27:00,
2013-01-24 12:28:00,19.9,1.5,30.09,NW,315,13.2,17.2,44,0.00,,SKC,0.00,VWS V14.01,2013-01-24 17:28:00,
2013-01-24 12:30:00,19.9,1.1,30.09,NW,315,12.8,19.0,43,0.00,,SKC,0.00,VWS V14.01,2013-01-24 17:30:00,
2013-01-24 12:32:00,18.7,0.4,30.09,NNW,338,12.5,14.8,44,0.00,,SKC,0.00,VWS V14.01,2013-01-24 17:32:00,
2013-01-24 12:34:00,19.8,0.9,30.09,NW,315,7.6,12.8,43,0.00,,SKC,0.00,VWS V14.01,2013-01-24 17:34:00,
2013-01-24 12:36:00,19.9,1.1,30.09,NW,315,17.5,17.5,43,0.00,,SKC,0.00,VWS V14.01,2013-01-24 17:36:00,
2013-01-24 12:37:00,18.7,0.4,30.09,NW,315,13.2,17.7,44,0.00,,SKC,0.00,VWS V14.01,2013-01-24 17:37:00,
2013-01-24 12:38:00,19.9,1.1,30.09,NW,315,10.3,17.5,43,0.00,,SKC,0.00,VWS V14.01,2013-01-24 17:38:00,
2013-01-24 12:40:00,19.9,1.1,30.09,NW,315,14.1,17.2,43,0.00,,SKC,0.00,VWS V14.01,2013-01-24 17:40:00,
2013-01-24 12:42:00,18.9,0.6,30.09,North,0,11.9,12.8,44,0.00,,SKC,0.00,VWS V14.01,2013-01-24 17:42:00,
2013-01-24 12:44:00,19.9,1.1,30.09,NW,315,15.9,23.0,43,0.00,,SKC,0.00,VWS V14.01,2013-01-24 17:44:00,
2013-01-24 12:46:00,19.9,1.1,30.09,NW,315,14.3,16.1,43,0.00,,SKC,0.00,VWS V14.01,2013-01-24 17:46:00,
2013-01-24 12:47:00,19.0,0.7,30.06,NW,315,9.4,13.9,44,0.00,,SKC,0.00,VWS V14.01,2013-01-24 17:47:00,
2013-01-24 12:48:00,19.9,1.1,30.09,NNW,338,13.9,17.2,43,0.00,,SKC,0.00,VWS V14.01,2013-01-24 17:48:00,
2013-01-24 12:50:00,19.9,1.1,30.09,NW,315,13.9,14.5,43,0.00,,SKC,0.00,VWS V14.01,2013-01-24 17:50:00,
2013-01-24 12:52:00,19.2,1.4,30.06,NW,315,8.1,12.5,45,0.00,,SKC,0.00,VWS V14.01,2013-01-24 17:52:00,
2013-01-24 12:54:00,19.9,1.1,30.09,NNW,338,13.2,19.7,43,0.00,,SKC,0.00,VWS V14.01,2013-01-24 17:54:00,
2013-01-24 12:56:00,19.9,1.1,30.09,NNW,338,17.7,19.2,43,0.00,,SKC,0.00,VWS V14.01,2013-01-24 17:56:00,
2013-01-24 12:57:00,19.4,1.5,30.06,NW,315,15.9,20.8,45,0.00,,SKC,0.00,VWS V14.01,2013-01-24 17:57:00,
2013-01-24 12:58:00,19.9,1.1,30.09,NNW,338,17.5,17.5,43,0.00,,SKC,0.00,VWS V14.01,2013-01-24 17:58:00,
2013-01-24 13:00:00,19.9,1.1,30.09,NW,315,14.8,15.7,43,0.00,,SKC,0.00,VWS V14.01,2013-01-24 18:00:00,
2013-01-24 13:02:00,19.6,1.2,30.09,NNW,338,8.5,17.2,44,0.00,,SKC,0.00,VWS V14.01,2013-01-24 18:02:00,
2013-01-24 13:04:00,19.9,1.1,30.09,NNW,338,14.3,14.8,43,0.00,,SKC,0.00,VWS V14.01,2013-01-24 18:04:00,
2013-01-24 13:06:00,20.1,1.2,30.09,WNW,292,18.1,18.1,43,0.00,,SKC,0.00,VWS V14.01,2013-01-24 18:06:00,
2013-01-24 13:07:00,19.8,1.4,30.09,NW,315,11.0,17.7,44,0.00,,SKC,0.00,VWS V14.01,2013-01-24 18:07:00,
2013-01-24 13:08:00,20.3,1.4,30.09,NNW,338,15.9,21.5,43,0.00,,SKC,0.00,VWS V14.01,2013-01-24 18:08:00,
2013-01-24 13:10:00,20.1,1.2,30.09,NNW,338,14.5,17.7,43,0.00,,SKC,0.00,VWS V14.01,2013-01-24 18:10:00,
2013-01-24 13:12:00,19.8,1.4,30.09,NW,315,15.2,19.5,44,0.00,,SKC,0.00,VWS V14.01,2013-01-24 18:12:00,
2013-01-24 13:14:00,20.3,1.4,30.09,NW,315,17.2,19.5,43,0.00,,SKC,0.00,VWS V14.01,2013-01-24 18:14:00,
2013-01-24 13:16:00,20.3,1.4,30.09,NNW,338,18.8,18.8,43,0.00,,SKC,0.00,VWS V14.01,2013-01-24 18:16:00,
2013-01-24 13:17:00,19.8,1.4,30.09,NW,315,13.0,13.0,44,0.00,,SKC,0.00,VWS V14.01,2013-01-24 18:17:00,
2013-01-24 13:18:00,20.3,1.4,30.09,NW,315,16.6,21.3,43,0.00,,SKC,0.00,VWS V14.01,2013-01-24 18:18:00,
2013-01-24 13:20:00,20.3,1.4,30.09,NW,315,14.8,17.2,43,0.00,,SKC,0.00,VWS V14.01,2013-01-24 18:20:00,
2013-01-24 13:22:00,19.9,1.5,30.09,NNW,338,19.9,19.9,44,0.00,,SKC,0.00,VWS V14.01,2013-01-24 18:22:00,
2013-01-24 13:24:00,20.3,1.4,30.09,NNW,338,10.5,14.3,43,0.00,,SKC,0.00,VWS V14.01,2013-01-24 18:24:00,
2013-01-24 13:26:00,20.3,1.4,30.09,NW,315,11.4,13.2,43,0.00,,SKC,0.00,VWS V14.01,2013-01-24 18:26:00,
2013-01-24 13:27:00,19.9,1.1,30.09,West,270,12.1,17.2,43,0.00,,SKC,0.00,VWS V14.01,2013-01-24 18:27:00,
2013-01-24 13:28:00,20.3,1.4,30.09,WNW,292,10.7,16.3,43,0.00,,SKC,0.00,VWS V14.01,2013-01-24 18:28:00,
2013-01-24 13:30:00,20.5,1.5,30.09,NNW,338,13.0,23.7,43,0.00,,SKC,0.00,VWS V14.01,2013-01-24 18:30:00,
2013-01-24 13:32:00,19.8,0.9,30.09,NNW,338,12.8,16.1,43,0.00,,SKC,0.00,VWS V14.01,2013-01-24 18:32:00,
2013-01-24 13:34:00,20.5,1.5,30.09,NNW,338,15.4,17.7,43,0.00,,SKC,0.00,VWS V14.01,2013-01-24 18:34:00,
2013-01-24 13:36:00,20.5,1.5,30.09,NW,315,21.9,21.9,43,0.00,,SKC,0.00,VWS V14.01,2013-01-24 18:36:00,
2013-01-24 13:37:00,19.9,1.1,30.09,NW,315,13.2,17.5,43,0.00,,SKC,0.00,VWS V14.01,2013-01-24 18:37:00,
2013-01-24 13:38:00,20.5,1.5,30.09,NW,315,15.7,17.7,43,0.00,,SKC,0.00,VWS V14.01,2013-01-24 18:38:00,
2013-01-24 13:40:00,20.5,1.5,30.09,NW,315,18.8,19.5,43,0.00,,SKC,0.00,VWS V14.01,2013-01-24 18:40:00,
2013-01-24 13:42:00,20.1,1.2,30.09,NW,315,15.4,15.4,43,0.00,,SKC,0.00,VWS V14.01,2013-01-24 18:42:00,
2013-01-24 13:44:00,20.5,1.5,30.12,NW,315,14.5,14.5,43,0.00,,SKC,0.00,VWS V14.01,2013-01-24 18:44:00,
2013-01-24 13:46:00,20.5,1.5,30.12,NW,315,10.7,15.2,43,0.00,,SKC,0.00,VWS V14.01,2013-01-24 18:46:00,
2013-01-24 13:47:00,19.9,1.1,30.09,NW,315,10.5,17.2,43,0.00,,SKC,0.00,VWS V14.01,2013-01-24 18:47:00,
2013-01-24 13:48:00,20.5,1.5,30.12,WNW,292,15.9,19.9,43,0.00,,SKC,0.00,VWS V14.01,2013-01-24 18:48:00,
2013-01-24 13:50:00,20.5,1.5,30.12,WNW,292,13.9,18.8,43,0.00,,SKC,0.00,VWS V14.01,2013-01-24 18:50:00,
2013-01-24 13:52:00,19.9,1.1,30.09,NW,315,15.4,15.4,43,0.00,,SKC,0.00,VWS V14.01,2013-01-24 18:52:00,
2013-01-24 13:54:00,20.7,1.7,30.12,NW,315,15.9,15.9,43,0.00,,SKC,0.00,VWS V14.01,2013-01-24 18:54:00,
2013-01-24 13:56:00,20.7,1.7,30.12,NW,315,14.8,18.6,43,0.00,,SKC,0.00,VWS V14.01,2013-01-24 18:56:00,
2013-01-24 13:57:00,19.9,1.1,30.09,NW,315,10.3,17.7,43,0.00,,SKC,0.00,VWS V14.01,2013-01-24 18:57:00,
2013-01-24 13:58:00,20.7,1.7,30.12,NW,315,10.5,13.6,43,0.00,,SKC,0.00,VWS V14.01,2013-01-24 18:58:00,
2013-01-24 14:00:00,20.7,1.7,30.12,NW,315,13.2,14.8,43,0.00,,SKC,0.00,VWS V14.01,2013-01-24 19:00:00,
2013-01-24 14:02:00,19.9,1.1,30.09,NW,315,11.0,17.5,43,0.00,,SKC,0.00,VWS V14.01,2013-01-24 19:02:00,
2013-01-24 14:04:00,20.8,1.9,30.12,NW,315,17.2,17.2,43,0.00,,SKC,0.00,VWS V14.01,2013-01-24 19:04:00,
2013-01-24 14:06:00,20.8,1.9,30.12,NW,315,12.8,14.8,43,0.00,,SKC,0.00,VWS V14.01,2013-01-24 19:06:00,
2013-01-24 14:07:00,20.3,1.4,30.09,NW,315,21.5,21.5,43,0.00,,SKC,0.00,VWS V14.01,2013-01-24 19:07:00,
2013-01-24 14:08:00,20.8,1.9,30.12,NW,315,15.4,16.1,43,0.00,,SKC,0.00,VWS V14.01,2013-01-24 19:08:00,
2013-01-24 14:10:00,20.8,1.9,30.12,NW,315,15.2,19.2,43,0.00,,SKC,0.00,VWS V14.01,2013-01-24 19:10:00,
2013-01-24 14:12:00,20.3,1.4,30.09,NNW,338,17.0,17.5,43,0.00,,SKC,0.00,VWS V14.01,2013-01-24 19:12:00,
2013-01-24 14:14:00,21.0,2.0,30.12,NW,315,15.2,16.1,43,0.00,,SKC,0.00,VWS V14.01,2013-01-24 19:14:00,
2013-01-24 14:16:00,21.0,2.0,30.12,NNW,338,17.2,17.5,43,0.00,,SKC,0.00,VWS V14.01,2013-01-24 19:16:00,
2013-01-24 14:17:00,20.3,1.4,30.09,NNW,338,17.2,21.3,43,0.00,,SKC,0.00,VWS V14.01,2013-01-24 19:17:00,
2013-01-24 14:18:00,21.0,2.0,30.12,NW,315,20.4,20.4,43,0.00,,SKC,0.00,VWS V14.01,2013-01-24 19:18:00,
2013-01-24 14:20:00,21.0,2.0,30.12,NW,315,10.7,15.2,43,0.00,,SKC,0.00,VWS V14.01,2013-01-24 19:20:00,
2013-01-24 14:22:00,20.3,1.4,30.09,NNW,338,17.7,17.7,43,0.00,,SKC,0.00,VWS V14.01,2013-01-24 19:22:00,
2013-01-24 14:24:00,21.0,2.0,30.12,NNW,338,13.2,17.2,43,0.00,,SKC,0.00,VWS V14.01,2013-01-24 19:24:00,
2013-01-24 14:26:00,21.2,2.2,30.12,NW,315,13.6,22.2,43,0.00,,SKC,0.00,VWS V14.01,2013-01-24 19:26:00,
2013-01-24 14:27:00,20.3,1.4,30.09,NW,315,16.3,16.3,43,0.00,,SKC,0.00,VWS V14.01,2013-01-24 19:27:00,
2013-01-24 14:28:00,21.2,2.2,30.12,WNW,292,14.8,19.9,43,0.00,,SKC,0.00,VWS V14.01,2013-01-24 19:28:00,
2013-01-24 14:30:00,21.2,2.2,30.12,NW,315,18.8,18.8,43,0.00,,SKC,0.00,VWS V14.01,2013-01-24 19:30:00,
2013-01-24 14:32:00,20.5,1.5,30.09,NNW,338,21.3,21.3,43,0.00,,SKC,0.00,VWS V14.01,2013-01-24 19:32:00,
2013-01-24 14:34:00,21.2,2.2,30.12,NW,315,17.7,20.6,43,0.00,,SKC,0.00,VWS V14.01,2013-01-24 19:34:00,
2013-01-24 14:36:00,21.2,2.2,30.12,NW,315,15.2,15.2,43,0.00,,SKC,0.00,VWS V14.01,2013-01-24 19:36:00,
2013-01-24 14:37:00,20.5,1.5,30.09,NNW,338,17.2,21.9,43,0.00,,SKC,0.00,VWS V14.01,2013-01-24 19:37:00,
2013-01-24 14:38:00,21.0,1.5,30.12,North,0,12.5,19.5,42,0.00,,SKC,0.00,VWS V14.01,2013-01-24 19:38:00,
2013-01-24 14:40:00,21.0,1.5,30.12,NW,315,13.2,18.1,42,0.00,,SKC,0.00,VWS V14.01,2013-01-24 19:40:00,
2013-01-24 14:42:00,20.5,1.5,30.09,West,270,19.7,24.2,43,0.00,,SKC,0.00,VWS V14.01,2013-01-24 19:42:00,
2013-01-24 14:44:00,21.0,1.5,30.12,NW,315,17.0,22.8,42,0.00,,SKC,0.00,VWS V14.01,2013-01-24 19:44:00,
2013-01-24 14:46:00,21.2,2.2,30.12,NW,315,17.0,23.0,43,0.00,,SKC,0.00,VWS V14.01,2013-01-24 19:46:00,
2013-01-24 14:47:00,20.5,1.5,30.12,NNW,338,15.2,15.4,43,0.00,,SKC,0.00,VWS V14.01,2013-01-24 19:47:00,
2013-01-24 14:48:00,21.2,1.7,30.12,NW,315,13.6,26.2,42,0.00,,SKC,0.00,VWS V14.01,2013-01-24 19:48:00,
2013-01-24 14:50:00,21.2,1.2,30.12,NW,315,17.7,19.0,41,0.00,,SKC,0.00,VWS V14.01,2013-01-24 19:50:00,
2013-01-24 14:52:00,20.7,1.7,30.12,NW,315,10.7,16.8,43,0.00,,SKC,0.00,VWS V14.01,2013-01-24 19:52:00,
2013-01-24 14:54:00,21.0,0.5,30.12,NW,315,16.3,16.3,40,0.00,,SKC,0.00,VWS V14.01,2013-01-24 19:54:00,
2013-01-24 14:56:00,21.2,1.7,30.12,NW,315,13.0,13.9,42,0.00,,SKC,0.00,VWS V14.01,2013-01-24 19:56:00,
2013-01-24 14:57:00,20.7,1.7,30.12,NW,315,10.5,14.8,43,0.00,,SKC,0.00,VWS V14.01,2013-01-24 19:57:00,
2013-01-24 14:58:00,21.2,1.7,30.12,WNW,292,14.8,14.8,42,0.00,,SKC,0.00,VWS V14.01,2013-01-24 19:58:00,
2013-01-24 15:00:00,21.2,2.2,30.12,NW,315,15.2,18.1,43,0.00,,SKC,0.00,VWS V14.01,2013-01-24 20:00:00,
2013-01-24 15:02:00,20.8,1.9,30.12,WNW,292,13.0,21.9,43,0.00,,SKC,0.00,VWS V14.01,2013-01-24 20:02:00,
2013-01-24 15:04:00,21.2,2.2,30.12,NW,315,17.7,17.7,43,0.00,,SKC,0.00,VWS V14.01,2013-01-24 20:04:00,
2013-01-24 15:06:00,21.2,2.2,30.12,NW,315,11.0,15.2,43,0.00,,SKC,0.00,VWS V14.01,2013-01-24 20:06:00,
2013-01-24 15:07:00,20.8,1.9,30.12,NW,315,12.8,17.2,43,0.00,,SKC,0.00,VWS V14.01,2013-01-24 20:07:00,
2013-01-24 15:08:00,21.2,2.2,30.12,NW,315,12.3,19.7,43,0.00,,SKC,0.00,VWS V14.01,2013-01-24 20:08:00,
2013-01-24 15:10:00,21.2,2.2,30.12,NW,315,15.2,15.9,43,0.00,,SKC,0.00,VWS V14.01,2013-01-24 20:10:00,
2013-01-24 15:12:00,20.8,1.9,30.12,WNW,292,8.5,12.5,43,0.00,,SKC,0.00,VWS V14.01,2013-01-24 20:12:00,
2013-01-24 15:14:00,21.2,2.2,30.15,NW,315,13.2,13.2,43,0.00,,SKC,0.00,VWS V14.01,2013-01-24 20:14:00,
2013-01-24 15:16:00,21.2,2.2,30.15,NW,315,10.5,15.4,43,0.00,,SKC,0.00,VWS V14.01,2013-01-24 20:16:00,
2013-01-24 15:17:00,21.0,2.0,30.12,NW,315,18.1,18.1,43,0.00,,SKC,0.00,VWS V14.01,2013-01-24 20:17:00,
2013-01-24 15:18:00,21.2,2.2,30.15,WNW,292,10.7,14.8,43,0.00,,SKC,0.00,VWS V14.01,2013-01-24 20:18:00,
2013-01-24 15:20:00,21.2,2.2,30.15,NW,315,10.3,15.9,43,0.00,,SKC,0.00,VWS V14.01,2013-01-24 20:20:00,
2013-01-24 15:22:00,21.0,2.0,30.12,NNW,338,13.2,15.4,43,0.00,,SKC,0.00,VWS V14.01,2013-01-24 20:22:00,
2013-01-24 15:24:00,21.2,2.2,30.15,NW,315,11.9,12.8,43,0.00,,SKC,0.00,VWS V14.01,2013-01-24 20:24:00,
2013-01-24 15:26:00,21.2,2.2,30.15,NW,315,10.7,20.1,43,0.00,,SKC,0.00,VWS V14.01,2013-01-24 20:26:00,
2013-01-24 15:27:00,21.2,2.2,30.12,NW,315,19.9,19.9,43,0.00,,SKC,0.00,VWS V14.01,2013-01-24 20:27:00,
2013-01-24 15:28:00,21.2,2.2,30.15,NW,315,23.5,23.5,43,0.00,,SKC,0.00,VWS V14.01,2013-01-24 20:28:00,
2013-01-24 15:30:00,21.2,2.2,30.15,NW,315,10.5,18.8,43,0.00,,SKC,0.00,VWS V14.01,2013-01-24 20:30:00,
2013-01-24 15:32:00,21.2,2.2,30.12,WNW,292,13.0,19.9,43,0.00,,SKC,0.00,VWS V14.01,2013-01-24 20:32:00,
2013-01-24 15:34:00,21.2,2.2,30.15,NW,315,18.8,18.8,43,0.00,,SKC,0.00,VWS V14.01,2013-01-24 20:34:00,
2013-01-24 15:36:00,21.0,2.0,30.15,WNW,292,19.2,19.2,43,0.00,,SKC,0.00,VWS V14.01,2013-01-24 20:36:00,
2013-01-24 15:37:00,21.0,1.5,30.12,NW,315,13.2,17.2,42,0.00,,SKC,0.00,VWS V14.01,2013-01-24 20:37:00,
2013-01-24 15:38:00,21.0,2.0,30.15,WNW,292,12.5,17.0,43,0.00,,SKC,0.00,VWS V14.01,2013-01-24 20:38:00,
2013-01-24 15:40:00,21.0,2.0,30.15,NW,315,12.1,15.2,43,0.00,,SKC,0.00,VWS V14.01,2013-01-24 20:40:00,
2013-01-24 15:42:00,21.0,2.0,30.12,NW,315,15.2,17.7,43,0.00,,SKC,0.00,VWS V14.01,2013-01-24 20:42:00,
2013-01-24 15:44:00,21.0,2.0,30.15,NW,315,10.1,12.3,43,0.00,,SKC,0.00,VWS V14.01,2013-01-24 20:44:00,
2013-01-24 15:46:00,21.0,2.0,30.15,WNW,292,13.2,15.4,43,0.00,,SKC,0.00,VWS V14.01,2013-01-24 20:46:00,
2013-01-24 15:47:00,21.2,1.7,30.12,NW,315,17.7,26.2,42,0.00,,SKC,0.00,VWS V14.01,2013-01-24 20:47:00,
2013-01-24 15:48:00,21.0,2.0,30.15,WNW,292,13.9,17.5,43,0.00,,SKC,0.00,VWS V14.01,2013-01-24 20:48:00,
2013-01-24 15:50:00,21.0,2.0,30.15,WNW,292,11.0,17.2,43,0.00,,SKC,0.00,VWS V14.01,2013-01-24 20:50:00,
2013-01-24 15:52:00,21.0,1.0,30.12,NW,315,17.2,26.9,41,0.00,,SKC,0.00,VWS V14.01,2013-01-24 20:52:00,
2013-01-24 15:54:00,20.8,1.9,30.15,NW,315,14.3,15.9,43,0.00,,SKC,0.00,VWS V14.01,2013-01-24 20:54:00,
2013-01-24 15:56:00,20.8,1.9,30.15,NW,315,15.4,16.3,43,0.00,,SKC,0.00,VWS V14.01,2013-01-24 20:56:00,
2013-01-24 15:57:00,21.2,1.7,30.12,NW,315,10.7,13.2,42,0.00,,SKC,0.00,VWS V14.01,2013-01-24 20:57:00,
2013-01-24 15:58:00,20.8,1.9,30.15,NW,315,17.0,17.5,43,0.00,,SKC,0.00,VWS V14.01,2013-01-24 20:58:00,
2013-01-24 16:00:00,20.8,1.9,30.15,WNW,292,12.1,14.1,43,0.00,,SKC,0.00,VWS V14.01,2013-01-24 21:00:00,
2013-01-24 16:02:00,21.2,2.2,30.12,NW,315,13.6,19.0,43,0.00,,SKC,0.00,VWS V14.01,2013-01-24 21:02:00,
2013-01-24 16:04:00,21.0,2.0,30.15,NW,315,16.6,18.6,43,0.00,,SKC,0.00,VWS V14.01,2013-01-24 21:04:00,
2013-01-24 16:06:00,21.0,2.0,30.15,WNW,292,12.8,23.7,43,0.00,,SKC,0.00,VWS V14.01,2013-01-24 21:06:00,
2013-01-24 16:07:00,21.2,2.2,30.12,North,0,8.5,19.7,43,0.00,,SKC,0.00,VWS V14.01,2013-01-24 21:07:00,
2013-01-24 16:08:00,21.0,2.0,30.15,NW,315,10.7,12.3,43,0.00,,SKC,0.00,VWS V14.01,2013-01-24 21:08:00,
2013-01-24 16:10:00,21.0,2.0,30.15,NW,315,17.0,17.0,43,0.00,,SKC,0.00,VWS V14.01,2013-01-24 21:10:00,
2013-01-24 16:12:00,21.2,2.2,30.12,WNW,292,12.5,19.5,43,0.00,,SKC,0.00,VWS V14.01,2013-01-24 21:12:00,
2013-01-24 16:14:00,21.0,2.0,30.15,NW,315,12.5,17.9,43,0.00,,SKC,0.00,VWS V14.01,2013-01-24 21:14:00,
2013-01-24 16:16:00,21.0,2.0,30.15,NW,315,11.0,13.0,43,0.00,,SKC,0.00,VWS V14.01,2013-01-24 21:16:00,
2013-01-24 16:17:00,21.2,2.2,30.15,NW,315,14.8,14.8,43,0.00,,SKC,0.00,VWS V14.01,2013-01-24 21:17:00,
2013-01-24 16:18:00,21.0,2.0,30.15,NW,315,7.6,13.9,43,0.00,,SKC,0.00,VWS V14.01,2013-01-24 21:18:00,
2013-01-24 16:20:00,21.0,2.0,30.15,NW,315,9.2,14.8,43,0.00,,SKC,0.00,VWS V14.01,2013-01-24 21:20:00,
2013-01-24 16:22:00,21.2,2.2,30.15,NW,315,10.3,15.4,43,0.00,,SKC,0.00,VWS V14.01,2013-01-24 21:22:00,
2013-01-24 16:24:00,21.0,2.0,30.15,NW,315,10.5,13.9,43,0.00,,SKC,0.00,VWS V14.01,2013-01-24 21:24:00,
2013-01-24 16:26:00,21.0,2.0,30.15,NNW,338,10.3,17.0,43,0.00,,SKC,0.00,VWS V14.01,2013-01-24 21:26:00,
2013-01-24 16:27:00,21.2,2.2,30.15,WNW,292,13.4,13.4,43,0.00,,SKC,0.00,VWS V14.01,2013-01-24 21:27:00,
2013-01-24 16:28:00,21.0,2.0,30.15,NW,315,10.7,20.1,43,0.00,,SKC,0.00,VWS V14.01,2013-01-24 21:28:00,
2013-01-24 16:30:00,21.0,2.0,30.15,WNW,292,13.9,15.4,43,0.00,,SKC,0.00,VWS V14.01,2013-01-24 21:30:00,
2013-01-24 16:32:00,21.2,2.2,30.15,NW,315,13.2,19.5,43,0.00,,SKC,0.00,VWS V14.01,2013-01-24 21:32:00,
2013-01-24 16:34:00,20.8,1.9,30.15,NW,315,13.4,17.5,43,0.00,,SKC,0.00,VWS V14.01,2013-01-24 21:34:00,
2013-01-24 16:36:00,20.8,1.9,30.15,NW,315,10.5,19.7,43,0.00,,SKC,0.00,VWS V14.01,2013-01-24 21:36:00,
2013-01-24 16:38:00,21.0,2.0,30.15,WNW,292,12.5,17.0,43,0.00,,SKC,0.00,VWS V14.01,2013-01-24 21:38:00,
2013-01-24 16:40:00,20.8,1.9,30.15,WNW,292,8.5,10.7,43,0.00,,SKC,0.00,VWS V14.01,2013-01-24 21:40:00,
2013-01-24 16:42:00,20.8,1.9,30.15,WNW,292,15.7,19.0,43,0.00,,SKC,0.00,VWS V14.01,2013-01-24 21:42:00,
2013-01-24 16:43:00,21.0,2.0,30.15,NW,315,10.3,14.8,43,0.00,,SKC,0.00,VWS V14.01,2013-01-24 21:43:00,
2013-01-24 16:44:00,20.8,1.9,30.18,NW,315,13.4,13.4,43,0.00,,SKC,0.00,VWS V14.01,2013-01-24 21:44:00,
2013-01-24 16:45:00,20.8,1.9,30.18,West,270,13.6,13.6,43,0.00,,SKC,0.00,VWS V14.01,2013-01-24 21:45:00,
2013-01-24 16:46:00,20.8,1.9,30.18,NW,315,11.9,13.6,43,0.00,,SKC,0.00,VWS V14.01,2013-01-24 21:46:00,
2013-01-24 16:47:00,20.8,1.9,30.18,West,270,18.6,18.6,43,0.00,,SKC,0.00,VWS V14.01,2013-01-24 21:47:00,
2013-01-24 16:48:00,21.0,2.0,30.15,WNW,292,13.9,17.5,43,0.00,,SKC,0.00,VWS V14.01,2013-01-24 21:48:00,
2013-01-24 16:49:00,20.8,1.9,30.18,WNW,292,14.3,18.6,43,0.00,,SKC,0.00,VWS V14.01,2013-01-24 21:49:00,
2013-01-24 16:50:00,20.8,1.9,30.18,West,270,12.3,18.6,43,0.00,,SKC,0.00,VWS V14.01,2013-01-24 21:50:00,
2013-01-24 16:51:00,20.8,1.9,30.18,NW,315,10.7,18.6,43,0.00,,SKC,0.00,VWS V14.01,2013-01-24 21:51:00,
2013-01-24 16:52:00,20.8,1.9,30.18,NW,315,14.1,18.6,43,0.00,,SKC,0.00,VWS V14.01,2013-01-24 21:52:00,
2013-01-24 16:53:00,20.8,1.9,30.15,WNW,292,14.3,17.2,43,0.00,,SKC,0.00,VWS V14.01,2013-01-24 21:53:00,
2013-01-24 16:54:00,20.8,1.9,30.18,WNW,292,23.9,23.9,43,0.00,,SKC,0.00,VWS V14.01,2013-01-24 21:54:00,
2013-01-24 16:55:00,20.8,1.9,30.18,NW,315,13.2,23.9,43,0.00,,SKC,0.00,VWS V14.01,2013-01-24 21:55:00,
2013-01-24 16:56:00,20.8,1.9,30.18,NW,315,10.1,23.9,43,0.00,,SKC,0.00,VWS V14.01,2013-01-24 21:56:00,
2013-01-24 16:57:00,20.7,1.7,30.18,NW,315,13.2,23.9,43,0.00,,SKC,0.00,VWS V14.01,2013-01-24 21:57:00,
2013-01-24 16:58:00,20.8,1.9,30.15,NW,315,12.5,17.5,43,0.00,,SKC,0.00,VWS V14.01,2013-01-24 21:58:00,
2013-01-24 16:59:00,20.7,1.7,30.18,WNW,292,8.7,23.9,43,0.00,,SKC,0.00,VWS V14.01,2013-01-24 21:59:00,
2013-01-24 17:00:00,20.7,1.7,30.18,West,270,10.7,23.9,43,0.00,,SKC,0.00,VWS V14.01,2013-01-24 22:00:00,
2013-01-24 17:01:00,20.7,1.7,30.18,West,270,14.1,23.9,43,0.00,,SKC,0.00,VWS V14.01,2013-01-24 22:01:00,
2013-01-24 17:02:00,20.8,1.9,30.18,NW,315,10.1,23.9,43,0.00,,SKC,0.00,VWS V14.01,2013-01-24 22:02:00,
2013-01-24 17:03:00,20.8,1.9,30.15,NW,315,17.7,19.7,43,0.00,,SKC,0.00,VWS V14.01,2013-01-24 22:03:00,
2013-01-24 17:04:00,20.7,1.7,30.18,NW,315,14.3,23.9,43,0.00,,SKC,0.00,VWS V14.01,2013-01-24 22:04:00,
2013-01-24 17:05:00,20.7,1.7,30.18,NW,315,10.5,23.9,43,0.00,,SKC,0.00,VWS V14.01,2013-01-24 22:05:00,
2013-01-24 17:06:00,20.7,1.7,30.18,WNW,292,10.3,23.9,43,0.00,,SKC,0.00,VWS V14.01,2013-01-24 22:06:00,
2013-01-24 17:07:00,20.7,1.7,30.18,NW,315,15.4,23.9,43,0.00,,SKC,0.00,VWS V14.01,2013-01-24 22:07:00,
2013-01-24 17:08:00,21.0,2.0,30.15,NW,315,15.4,15.4,43,0.00,,SKC,0.00,VWS V14.01,2013-01-24 22:08:00,
2013-01-24 17:09:00,20.7,1.7,30.18,West,270,12.8,23.9,43,0.00,,SKC,0.00,VWS V14.01,2013-01-24 22:09:00,
2013-01-24 17:10:00,20.7,1.7,30.18,WNW,292,10.3,23.9,43,0.00,,SKC,0.00,VWS V14.01,2013-01-24 22:10:00,
2013-01-24 17:11:00,20.7,1.7,30.18,WNW,292,10.7,23.9,43,0.00,,SKC,0.00,VWS V14.01,2013-01-24 22:11:00,
2013-01-24 17:12:00,20.7,1.7,30.18,NW,315,9.8,23.9,43,0.00,,SKC,0.00,VWS V14.01,2013-01-24 22:12:00,
2013-01-24 17:13:00,21.0,2.0,30.15,NW,315,17.9,17.9,43,0.00,,SKC,0.00,VWS V14.01,2013-01-24 22:13:00,
2013-01-24 17:14:00,20.7,1.7,30.18,WNW,292,19.9,19.9,43,0.00,,SKC,0.00,VWS V14.01,2013-01-24 22:14:00,
2013-01-24 17:15:00,20.7,1.7,30.18,NW,315,11.0,19.9,43,0.00,,SKC,0.00,VWS V14.01,2013-01-24 22:15:00,
2013-01-24 17:16:00,20.7,1.7,30.18,NW,315,10.5,19.9,43,0.00,,SKC,0.00,VWS V14.01,2013-01-24 22:16:00,
2013-01-24 17:17:00,20.7,1.7,30.18,WNW,292,13.0,19.9,43,0.00,,SKC,0.00,VWS V14.01,2013-01-24 22:17:00,
2013-01-24 17:18:00,21.0,2.0,30.15,NW,315,10.1,13.9,43,0.00,,SKC,0.00,VWS V14.01,2013-01-24 22:18:00,
2013-01-24 17:19:00,20.7,1.7,30.18,NW,315,14.8,19.9,43,0.00,,SKC,0.00,VWS V14.01,2013-01-24 22:19:00,
2013-01-24 17:20:00,20.7,1.7,30.18,NW,315,10.7,19.9,43,0.00,,SKC,0.00,VWS V14.01,2013-01-24 22:20:00,
2013-01-24 17:21:00,20.7,1.7,30.18,NW,315,22.2,22.2,43,0.00,,SKC,0.00,VWS V14.01,2013-01-24 22:21:00,
2013-01-24 17:22:00,20.7,1.7,30.18,NW,315,16.1,22.2,43,0.00,,SKC,0.00,VWS V14.01,2013-01-24 22:22:00,
2013-01-24 17:23:00,21.0,2.0,30.15,NW,315,10.1,15.4,43,0.00,,SKC,0.00,VWS V14.01,2013-01-24 22:23:00,
2013-01-24 17:24:00,20.7,1.7,30.18,WNW,292,19.0,22.2,43,0.00,,SKC,0.00,VWS V14.01,2013-01-24 22:24:00,
2013-01-24 17:26:00,20.7,1.7,30.18,WNW,292,10.3,22.2,43,0.00,,SKC,0.00,VWS V14.01,2013-01-24 22:26:00,
2013-01-24 17:28:00,21.0,2.0,30.15,WNW,292,9.4,20.1,43,0.00,,SKC,0.00,VWS V14.01,2013-01-24 22:28:00,
2013-01-24 17:30:00,20.7,1.7,30.21,NW,315,22.8,22.8,43,0.00,,SKC,0.00,VWS V14.01,2013-01-24 22:30:00,
2013-01-24 17:32:00,20.7,1.7,30.21,West,270,19.0,19.0,43,0.00,,SKC,0.00,VWS V14.01,2013-01-24 22:32:00,
2013-01-24 17:33:00,20.8,1.9,30.15,WNW,292,16.3,17.5,43,0.00,,SKC,0.00,VWS V14.01,2013-01-24 22:33:00,
2013-01-24 17:34:00,20.7,1.7,30.21,NW,315,16.1,21.5,43,0.00,,SKC,0.00,VWS V14.01,2013-01-24 22:34:00,
2013-01-24 17:36:00,20.7,1.7,30.21,West,270,11.4,26.4,43,0.00,,SKC,0.00,VWS V14.01,2013-01-24 22:36:00,
2013-01-24 17:38:00,20.8,1.9,30.15,WNW,292,10.3,14.1,43,0.00,,SKC,0.00,VWS V14.01,2013-01-24 22:38:00,
2013-01-24 17:40:00,20.5,1.5,30.21,NW,315,11.0,21.9,43,0.00,,SKC,0.00,VWS V14.01,2013-01-24 22:40:00,
2013-01-24 17:42:00,20.5,1.5,30.21,West,270,15.2,17.2,43,0.00,,SKC,0.00,VWS V14.01,2013-01-24 22:42:00,
2013-01-24 17:43:00,20.8,1.9,30.18,WNW,292,14.1,16.1,43,0.00,,SKC,0.00,VWS V14.01,2013-01-24 22:43:00,
2013-01-24 17:44:00,20.7,1.7,30.24,NW,315,13.2,15.9,43,0.00,,SKC,0.00,VWS V14.01,2013-01-24 22:44:00,
2013-01-24 17:46:00,20.5,1.5,30.24,WNW,292,15.7,18.1,43,0.00,,SKC,0.00,VWS V14.01,2013-01-24 22:46:00,
2013-01-24 17:48:00,20.5,1.5,30.24,NW,315,12.8,15.2,43,0.00,,SKC,0.00,VWS V14.01,2013-01-24 22:48:00,
2013-01-24 17:50:00,20.5,1.5,30.24,WNW,292,19.0,20.8,43,0.00,,SKC,0.00,VWS V14.01,2013-01-24 22:50:00,
2013-01-24 17:52:00,20.3,1.4,30.24,NW,315,20.6,20.6,43,0.00,,SKC,0.00,VWS V14.01,2013-01-24 22:52:00,
2013-01-24 17:54:00,20.3,1.4,30.24,NW,315,11.9,17.5,43,0.00,,SKC,0.00,VWS V14.01,2013-01-24 22:54:00,
2013-01-24 17:56:00,20.3,1.4,30.24,West,270,17.7,17.7,43,0.00,,SKC,0.00,VWS V14.01,2013-01-24 22:56:00,
2013-01-24 17:58:00,20.3,1.4,30.24,WNW,292,14.3,17.0,43,0.00,,SKC,0.00,VWS V14.01,2013-01-24 22:58:00,
2013-01-24 18:00:00,20.3,1.4,30.21,NW,315,14.8,21.3,43,0.00,,SKC,0.00,VWS V14.01,2013-01-24 23:00:00,
2013-01-24 18:02:00,20.3,1.4,30.21,NW,315,11.0,21.9,43,0.00,,SKC,0.00,VWS V14.01,2013-01-24 23:02:00,
2013-01-24 18:04:00,20.3,1.4,30.21,NNW,338,13.0,22.4,43,0.00,,SKC,0.00,VWS V14.01,2013-01-24 23:04:00,
2013-01-24 18:06:00,20.3,1.4,30.21,NW,315,15.2,19.5,43,0.00,,SKC,0.00,VWS V14.01,2013-01-24 23:06:00,
2013-01-24 18:08:00,20.3,1.4,30.21,NW,315,12.8,17.5,43,0.00,,SKC,0.00,VWS V14.01,2013-01-24 23:08:00,
2013-01-24 18:10:00,20.3,1.4,30.21,WNW,292,15.7,17.9,43,0.00,,SKC,0.00,VWS V14.01,2013-01-24 23:10:00,
2013-01-24 18:12:00,20.3,1.4,30.21,WNW,292,13.0,22.6,43,0.00,,SKC,0.00,VWS V14.01,2013-01-24 23:12:00,
2013-01-24 18:14:00,20.3,1.4,30.21,NW,315,14.3,17.2,43,0.00,,SKC,0.00,VWS V14.01,2013-01-24 23:14:00,
2013-01-24 18:16:00,20.3,1.4,30.21,NW,315,10.7,17.5,43,0.00,,SKC,0.00,VWS V14.01,2013-01-24 23:16:00,
2013-01-24 18:18:00,20.3,1.4,30.21,NW,315,17.7,17.7,43,0.00,,SKC,0.00,VWS V14.01,2013-01-24 23:18:00,
2013-01-24 18:20:00,20.3,1.4,30.21,NW,315,10.5,16.1,43,0.00,,SKC,0.00,VWS V14.01,2013-01-24 23:20:00,
2013-01-24 18:22:00,20.3,1.4,30.21,NW,315,21.9,21.9,43,0.00,,SKC,0.00,VWS V14.01,2013-01-24 23:22:00,
2013-01-24 18:24:00,20.1,1.2,30.21,West,270,10.5,13.0,43,0.00,,SKC,0.00,VWS V14.01,2013-01-24 23:24:00,
2013-01-24 18:26:00,20.7,1.7,30.18,WNW,292,10.3,22.2,43,0.00,,SKC,0.00,VWS V14.01,2013-01-24 23:26:00,
2013-01-24 18:28:00,20.1,1.2,30.21,WNW,292,10.7,15.4,43,0.00,,SKC,0.00,VWS V14.01,2013-01-24 23:28:00,
2013-01-24 18:30:00,20.1,1.2,30.18,NW,315,10.7,19.2,43,0.00,,SKC,0.00,VWS V14.01,2013-01-24 23:30:00,
2013-01-24 18:31:00,20.7,1.7,30.21,WNW,292,14.3,18.6,43,0.00,,SKC,0.00,VWS V14.01,2013-01-24 23:31:00,
2013-01-24 18:32:00,19.9,1.1,30.18,West,270,23.3,23.3,43,0.00,,SKC,0.00,VWS V14.01,2013-01-24 23:32:00,
2013-01-24 18:34:00,19.9,1.1,30.18,WNW,292,22.2,22.2,43,0.00,,SKC,0.00,VWS V14.01,2013-01-24 23:34:00,
2013-01-24 18:36:00,20.7,1.7,30.21,WNW,292,9.8,17.7,43,0.00,,SKC,0.00,VWS V14.01,2013-01-24 23:36:00,
2013-01-24 18:38:00,19.9,1.1,30.18,WNW,292,19.5,19.5,43,0.00,,SKC,0.00,VWS V14.01,2013-01-24 23:38:00,
2013-01-24 18:40:00,19.9,1.1,30.18,WNW,292,18.1,18.1,43,0.00,,SKC,0.00,VWS V14.01,2013-01-24 23:40:00,
2013-01-24 18:41:00,20.5,1.5,30.21,WNW,292,13.6,17.2,43,0.00,,SKC,0.00,VWS V14.01,2013-01-24 23:41:00,
2013-01-24 18:42:00,19.9,1.1,30.18,WNW,292,15.4,17.5,43,0.00,,SKC,0.00,VWS V14.01,2013-01-24 23:42:00,
2013-01-24 18:44:00,19.9,1.1,30.21,NW,315,10.5,18.6,43,0.00,,SKC,0.00,VWS V14.01,2013-01-24 23:44:00,
2013-01-24 18:46:00,20.5,1.5,30.24,NW,315,13.9,19.7,43,0.00,,SKC,0.00,VWS V14.01,2013-01-24 23:46:00,
2013-01-24 18:48:00,19.8,0.9,30.21,West,270,15.4,15.4,43,0.00,,SKC,0.00,VWS V14.01,2013-01-24 23:48:00,
2013-01-24 18:50:00,19.8,0.9,30.21,NW,315,16.1,25.3,43,0.00,,SKC,0.00,VWS V14.01,2013-01-24 23:50:00,
2013-01-24 18:51:00,20.3,1.4,30.24,NNW,338,13.4,21.5,43,0.00,,SKC,0.00,VWS V14.01,2013-01-24 23:51:00,
2013-01-24 18:52:00,19.8,0.9,30.21,NW,315,15.4,18.1,43,0.00,,SKC,0.00,VWS V14.01,2013-01-24 23:52:00,
2013-01-24 18:54:00,19.6,0.7,30.21,WNW,292,16.3,20.8,43,0.00,,SKC,0.00,VWS V14.01,2013-01-24 23:54:00,
2013-01-24 18:56:00,20.3,1.4,30.24,NW,315,14.5,19.9,43,0.00,,SKC,0.00,VWS V14.01,2013-01-24 23:56:00,
2013-01-24 18:58:00,19.6,0.7,30.21,WNW,292,13.2,17.2,43,0.00,,SKC,0.00,VWS V14.01,2013-01-24 23:58:00,
2013-01-24 19:00:00,19.6,0.7,30.21,West,270,17.0,23.3,43,0.00,,SKC,0.00,VWS V14.01,2013-01-25 00:00:00,
2013-01-24 19:01:00,20.3,1.4,30.21,NW,315,15.2,21.9,43,0.00,,SKC,0.00,VWS V14.01,2013-01-25 00:01:00,
2013-01-24 19:02:00,19.6,0.7,30.21,West,270,13.2,16.3,43,0.00,,SKC,0.00,VWS V14.01,2013-01-25 00:02:00,
2013-01-24 19:04:00,19.6,0.7,30.21,WNW,292,17.7,17.7,43,0.00,,SKC,0.00,VWS V14.01,2013-01-25 00:04:00,
2013-01-24 19:06:00,20.3,1.4,30.21,NW,315,13.2,19.5,43,0.00,,SKC,0.00,VWS V14.01,2013-01-25 00:06:00,
2013-01-24 19:08:00,19.6,0.7,30.21,NW,315,18.6,19.7,43,0.00,,SKC,0.00,VWS V14.01,2013-01-25 00:08:00,
2013-01-24 19:10:00,19.6,0.7,30.21,West,270,13.0,13.2,43,0.00,,SKC,0.00,VWS V14.01,2013-01-25 00:10:00,
2013-01-24 19:11:00,20.3,1.4,30.21,West,270,15.2,22.6,43,0.00,,SKC,0.00,VWS V14.01,2013-01-25 00:11:00,
2013-01-24 19:12:00,19.4,1.1,30.21,West,270,22.2,22.2,44,0.00,,SKC,0.00,VWS V14.01,2013-01-25 00:12:00,
2013-01-24 19:14:00,19.4,1.1,30.21,WNW,292,13.0,19.9,44,0.00,,SKC,0.00,VWS V14.01,2013-01-25 00:14:00,
2013-01-24 19:16:00,20.3,1.4,30.21,NW,315,10.5,13.6,43,0.00,,SKC,0.00,VWS V14.01,2013-01-25 00:16:00,
2013-01-24 19:18:00,19.4,1.1,30.21,WNW,292,12.8,24.2,44,0.00,,SKC,0.00,VWS V14.01,2013-01-25 00:18:00,
2013-01-24 19:20:00,19.4,1.1,30.21,WNW,292,15.7,17.0,44,0.00,,SKC,0.00,VWS V14.01,2013-01-25 00:20:00,
2013-01-24 19:21:00,20.3,1.4,30.21,WNW,292,17.7,17.7,43,0.00,,SKC,0.00,VWS V14.01,2013-01-25 00:21:00,
2013-01-24 19:22:00,19.4,1.1,30.21,WNW,292,11.0,22.8,44,0.00,,SKC,0.00,VWS V14.01,2013-01-25 00:22:00,
2013-01-24 19:24:00,19.4,1.1,30.21,West,270,10.7,19.5,44,0.00,,SKC,0.00,VWS V14.01,2013-01-25 00:24:00,
2013-01-24 19:26:00,20.1,1.2,30.21,West,270,11.0,17.5,43,0.00,,SKC,0.00,VWS V14.01,2013-01-25 00:26:00,
2013-01-24 19:28:00,19.4,0.6,30.21,WNW,292,10.7,19.7,43,0.00,,SKC,0.00,VWS V14.01,2013-01-25 00:28:00,
2013-01-24 19:30:00,19.4,1.1,30.21,WNW,292,17.7,18.1,44,0.00,,SKC,0.00,VWS V14.01,2013-01-25 00:30:00,
2013-01-24 19:31:00,19.9,1.1,30.18,West,270,23.3,23.3,43,0.00,,SKC,0.00,VWS V14.01,2013-01-25 00:31:00,
2013-01-24 19:32:00,19.4,1.1,30.21,West,270,12.5,22.4,44,0.00,,SKC,0.00,VWS V14.01,2013-01-25 00:32:00,
2013-01-24 19:34:00,19.4,1.1,30.21,NW,315,17.5,23.9,44,0.00,,SKC,0.00,VWS V14.01,2013-01-25 00:34:00,
2013-01-24 19:36:00,19.9,1.1,30.18,West,270,17.0,17.0,43,0.00,,SKC,0.00,VWS V14.01,2013-01-25 00:36:00,
2013-01-24 19:38:00,19.4,0.6,30.21,WNW,292,19.7,24.4,43,0.00,,SKC,0.00,VWS V14.01,2013-01-25 00:38:00,
2013-01-24 19:40:00,19.2,0.4,30.21,WNW,292,12.5,23.0,43,0.00,,SKC,0.00,VWS V14.01,2013-01-25 00:40:00,
2013-01-24 19:41:00,19.9,1.1,30.18,WNW,292,15.4,17.5,43,0.00,,SKC,0.00,VWS V14.01,2013-01-25 00:41:00,
2013-01-24 19:42:00,19.2,0.4,30.21,NW,315,17.0,24.6,43,0.00,,SKC,0.00,VWS V14.01,2013-01-25 00:42:00,
2013-01-24 19:44:00,19.4,1.1,30.21,NW,315,20.8,23.5,44,0.00,,SKC,0.00,VWS V14.01,2013-01-25 00:44:00,
2013-01-24 19:46:00,19.8,0.9,30.21,NW,315,12.3,19.2,43,0.00,,SKC,0.00,VWS V14.01,2013-01-25 00:46:00,
2013-01-24 19:48:00,19.4,0.6,30.21,WNW,292,15.2,17.2,43,0.00,,SKC,0.00,VWS V14.01,2013-01-25 00:48:00,
2013-01-24 19:50:00,19.4,1.1,30.21,WNW,292,18.1,24.2,44,0.00,,SKC,0.00,VWS V14.01,2013-01-25 00:50:00,
2013-01-24 19:51:00,19.8,0.9,30.21,NW,315,15.4,18.1,43,0.00,,SKC,0.00,VWS V14.01,2013-01-25 00:51:00,
2013-01-24 19:52:00,19.4,0.6,30.21,NW,315,10.5,22.2,43,0.00,,SKC,0.00,VWS V14.01,2013-01-25 00:52:00,
2013-01-24 19:54:00,19.4,0.6,30.21,WNW,292,15.4,19.9,43,0.00,,SKC,0.00,VWS V14.01,2013-01-25 00:54:00,
2013-01-24 19:56:00,19.6,0.7,30.21,WNW,292,13.0,19.7,43,0.00,,SKC,0.00,VWS V14.01,2013-01-25 00:56:00,
2013-01-24 19:58:00,19.4,1.1,30.21,WNW,292,12.5,22.6,44,0.00,,SKC,0.00,VWS V14.01,2013-01-25 00:58:00,
2013-01-24 20:00:00,19.4,1.1,30.21,West,270,16.3,16.3,44,0.00,,SKC,0.00,VWS V14.01,2013-01-25 01:00:00,
2013-01-24 20:01:00,19.6,0.7,30.21,NW,315,13.2,18.8,43,0.00,,SKC,0.00,VWS V14.01,2013-01-25 01:01:00,
2013-01-24 20:02:00,19.2,0.4,30.21,West,270,19.7,20.1,43,0.00,,SKC,0.00,VWS V14.01,2013-01-25 01:02:00,
2013-01-24 20:04:00,19.2,0.4,30.21,NW,315,9.2,21.5,43,0.00,,SKC,0.00,VWS V14.01,2013-01-25 01:04:00,
2013-01-24 20:06:00,19.6,0.7,30.21,NW,315,15.9,19.5,43,0.00,,SKC,0.00,VWS V14.01,2013-01-25 01:06:00,
2013-01-24 20:08:00,19.2,0.9,30.21,West,270,15.4,15.4,44,0.00,,SKC,0.00,VWS V14.01,2013-01-25 01:08:00,
2013-01-24 20:10:00,19.2,0.9,30.21,WNW,292,9.8,19.9,44,0.00,,SKC,0.00,VWS V14.01,2013-01-25 01:10:00,
2013-01-24 20:11:00,19.4,1.1,30.21,West,270,17.7,19.9,44,0.00,,SKC,0.00,VWS V14.01,2013-01-25 01:11:00,
2013-01-24 20:12:00,19.2,0.9,30.21,WNW,292,23.7,23.7,44,0.00,,SKC,0.00,VWS V14.01,2013-01-25 01:12:00,
2013-01-24 20:14:00,19.2,0.9,30.21,WNW,292,12.1,14.1,44,0.00,,SKC,0.00,VWS V14.01,2013-01-25 01:14:00,
2013-01-24 20:16:00,19.4,1.1,30.21,WNW,292,13.2,21.0,44,0.00,,SKC,0.00,VWS V14.01,2013-01-25 01:16:00,
2013-01-24 20:18:00,19.2,0.9,30.21,WNW,292,14.1,15.2,44,0.00,,SKC,0.00,VWS V14.01,2013-01-25 01:18:00,
2013-01-24 20:20:00,19.2,0.9,30.21,NW,315,11.9,23.3,44,0.00,,SKC,0.00,VWS V14.01,2013-01-25 01:20:00,
2013-01-24 20:21:00,19.4,1.1,30.21,WNW,292,16.1,22.8,44,0.00,,SKC,0.00,VWS V14.01,2013-01-25 01:21:00,
2013-01-24 20:22:00,19.2,0.9,30.21,NW,315,11.0,19.9,44,0.00,,SKC,0.00,VWS V14.01,2013-01-25 01:22:00,
2013-01-24 20:24:00,19.2,0.9,30.21,West,270,16.3,18.8,44,0.00,,SKC,0.00,VWS V14.01,2013-01-25 01:24:00,
2013-01-24 20:26:00,19.0,0.2,30.21,WNW,292,12.5,15.2,43,0.00,,SKC,0.00,VWS V14.01,2013-01-25 01:26:00,
2013-01-24 20:27:00,19.4,0.6,30.21,West,270,16.1,16.1,43,0.00,,SKC,0.00,VWS V14.01,2013-01-25 01:27:00,
2013-01-24 20:28:00,19.0,0.7,30.21,NNW,338,12.5,14.3,44,0.00,,SKC,0.00,VWS V14.01,2013-01-25 01:28:00,
2013-01-24 20:30:00,19.0,0.7,30.21,NW,315,14.8,17.0,44,0.00,,SKC,0.00,VWS V14.01,2013-01-25 01:30:00,
2013-01-24 20:32:00,19.4,1.1,30.21,West,270,12.5,22.4,44,0.00,,SKC,0.00,VWS V14.01,2013-01-25 01:32:00,
2013-01-24 20:34:00,19.0,0.2,30.21,NW,315,15.4,16.1,43,0.00,,SKC,0.00,VWS V14.01,2013-01-25 01:34:00,
2013-01-24 20:36:00,19.0,0.7,30.21,WNW,292,10.7,19.9,44,0.00,,SKC,0.00,VWS V14.01,2013-01-25 01:36:00,
2013-01-24 20:37:00,19.2,0.9,30.21,WNW,292,23.3,26.9,44,0.00,,SKC,0.00,VWS V14.01,2013-01-25 01:37:00,
2013-01-24 20:38:00,19.0,0.7,30.21,WNW,292,12.8,14.1,44,0.00,,SKC,0.00,VWS V14.01,2013-01-25 01:38:00,
2013-01-24 20:40:00,19.0,0.7,30.21,NW,315,13.0,18.8,44,0.00,,SKC,0.00,VWS V14.01,2013-01-25 01:40:00,
2013-01-24 20:42:00,19.2,0.4,30.21,West,270,19.5,24.6,43,0.00,,SKC,0.00,VWS V14.01,2013-01-25 01:42:00,
2013-01-24 20:44:00,19.0,0.7,30.21,WNW,292,10.5,12.5,44,0.00,,SKC,0.00,VWS V14.01,2013-01-25 01:44:00,
2013-01-24 20:46:00,19.0,0.7,30.21,NW,315,13.2,15.2,44,0.00,,SKC,0.00,VWS V14.01,2013-01-25 01:46:00,
2013-01-24 20:47:00,19.4,0.6,30.21,NW,315,17.2,17.5,43,0.00,,SKC,0.00,VWS V14.01,2013-01-25 01:47:00,
2013-01-24 20:48:00,18.9,0.6,30.21,WNW,292,12.8,17.2,44,0.00,,SKC,0.00,VWS V14.01,2013-01-25 01:48:00,
2013-01-24 20:50:00,18.9,0.6,30.21,NW,315,16.6,24.4,44,0.00,,SKC,0.00,VWS V14.01,2013-01-25 01:50:00,
2013-01-24 20:52:00,19.4,0.6,30.21,West,270,17.7,22.2,43,0.00,,SKC,0.00,VWS V14.01,2013-01-25 01:52:00,
2013-01-24 20:54:00,18.7,0.4,30.21,WNW,292,17.9,23.3,44,0.00,,SKC,0.00,VWS V14.01,2013-01-25 01:54:00,
2013-01-24 20:56:00,18.7,0.4,30.21,NW,315,11.0,13.2,44,0.00,,SKC,0.00,VWS V14.01,2013-01-25 01:56:00,
2013-01-24 20:57:00,19.4,0.6,30.21,WNW,292,13.2,23.3,43,0.00,,SKC,0.00,VWS V14.01,2013-01-25 01:57:00,
2013-01-24 20:58:00,18.7,0.4,30.21,West,270,15.7,15.7,44,0.00,,SKC,0.00,VWS V14.01,2013-01-25 01:58:00,
2013-01-24 21:00:00,18.7,0.4,30.24,West,270,12.1,17.9,44,0.00,,SKC,0.00,VWS V14.01,2013-01-25 02:00:00,
2013-01-24 21:02:00,19.2,0.4,30.21,West,270,19.7,20.1,43,0.00,,SKC,0.00,VWS V14.01,2013-01-25 02:02:00,
2013-01-24 21:04:00,18.5,0.2,30.24,NW,315,13.2,15.9,44,0.00,,SKC,0.00,VWS V14.01,2013-01-25 02:04:00,
2013-01-24 21:06:00,18.5,-0.2,30.24,WNW,292,15.9,17.7,43,0.00,,SKC,0.00,VWS V14.01,2013-01-25 02:06:00,
2013-01-24 21:07:00,19.2,0.9,30.21,NW,315,13.0,19.2,44,0.00,,SKC,0.00,VWS V14.01,2013-01-25 02:07:00,
2013-01-24 21:08:00,18.5,0.2,30.24,NW,315,12.5,15.4,44,0.00,,SKC,0.00,VWS V14.01,2013-01-25 02:08:00,
2013-01-24 21:10:00,18.3,0.1,30.24,NW,315,15.4,19.5,44,0.00,,SKC,0.00,VWS V14.01,2013-01-25 02:10:00,
2013-01-24 21:12:00,19.2,0.9,30.21,WNW,292,23.7,23.7,44,0.00,,SKC,0.00,VWS V14.01,2013-01-25 02:12:00,
2013-01-24 21:14:00,18.3,0.1,30.27,NW,315,12.8,14.8,44,0.00,,SKC,0.00,VWS V14.01,2013-01-25 02:14:00,
2013-01-24 21:16:00,18.3,0.1,30.27,WNW,292,11.0,14.8,44,0.00,,SKC,0.00,VWS V14.01,2013-01-25 02:16:00,
2013-01-24 21:17:00,19.2,0.9,30.21,West,270,12.1,17.0,44,0.00,,SKC,0.00,VWS V14.01,2013-01-25 02:17:00,
2013-01-24 21:18:00,18.3,0.1,30.27,WNW,292,11.2,11.9,44,0.00,,SKC,0.00,VWS V14.01,2013-01-25 02:18:00,
2013-01-24 21:20:00,18.3,0.1,30.27,NW,315,20.8,20.8,44,0.00,,SKC,0.00,VWS V14.01,2013-01-25 02:20:00,
2013-01-24 21:22:00,19.2,0.9,30.21,NW,315,11.0,19.9,44,0.00,,SKC,0.00,VWS V14.01,2013-01-25 02:22:00,
2013-01-24 21:24:00,18.3,0.1,30.27,NW,315,15.7,17.5,44,0.00,,SKC,0.00,VWS V14.01,2013-01-25 02:24:00,
2013-01-24 21:26:00,18.3,0.1,30.27,NW,315,11.0,17.5,44,0.00,,SKC,0.00,VWS V14.01,2013-01-25 02:26:00,
2013-01-24 21:27:00,19.0,0.2,30.21,WNW,292,13.0,15.7,43,0.00,,SKC,0.00,VWS V14.01,2013-01-25 02:27:00,
2013-01-24 21:28:00,18.3,0.1,30.27,WNW,292,10.5,22.2,44,0.00,,SKC,0.00,VWS V14.01,2013-01-25 02:28:00,
2013-01-24 21:30:00,18.1,-0.1,30.27,West,270,9.6,19.9,44,0.00,,SKC,0.00,VWS V14.01,2013-01-25 02:30:00,
2013-01-24 21:32:00,19.0,0.2,30.21,NW,315,14.8,16.6,43,0.00,,SKC,0.00,VWS V14.01,2013-01-25 02:32:00,
2013-01-24 21:34:00,18.1,-0.1,30.27,WNW,292,15.2,20.6,44,0.00,,SKC,0.00,VWS V14.01,2013-01-25 02:34:00,
2013-01-24 21:36:00,18.1,-0.1,30.27,NW,315,14.1,19.0,44,0.00,,SKC,0.00,VWS V14.01,2013-01-25 02:36:00,
2013-01-24 21:37:00,19.0,0.7,30.21,WNW,292,10.5,19.9,44,0.00,,SKC,0.00,VWS V14.01,2013-01-25 02:37:00,
2013-01-24 21:38:00,18.1,-0.6,30.27,NW,315,15.9,15.9,43,0.00,,SKC,0.00,VWS V14.01,2013-01-25 02:38:00,
2013-01-24 21:40:00,18.1,-0.1,30.27,NW,315,14.8,18.8,44,0.00,,SKC,0.00,VWS V14.01,2013-01-25 02:40:00,
2013-01-24 21:42:00,19.0,0.7,30.21,NW,315,14.1,14.1,44,0.00,,SKC,0.00,VWS V14.01,2013-01-25 02:42:00,
2013-01-24 21:44:00,18.1,-0.1,30.27,WNW,292,14.3,16.1,44,0.00,,SKC,0.00,VWS V14.01,2013-01-25 02:44:00,
2013-01-24 21:46:00,18.1,-0.1,30.27,NW,315,15.4,15.4,44,0.00,,SKC,0.00,VWS V14.01,2013-01-25 02:46:00,
2013-01-24 21:47:00,18.9,0.6,30.21,NW,315,12.8,20.1,44,0.00,,SKC,0.00,VWS V14.01,2013-01-25 02:47:00,
2013-01-24 21:48:00,18.0,-0.3,30.27,West,270,12.3,19.0,44,0.00,,SKC,0.00,VWS V14.01,2013-01-25 02:48:00,
2013-01-24 21:50:00,18.0,-0.3,30.27,West,270,22.2,22.2,44,0.00,,SKC,0.00,VWS V14.01,2013-01-25 02:50:00,
2013-01-24 21:52:00,18.7,0.4,30.21,West,270,10.7,15.4,44,0.00,,SKC,0.00,VWS V14.01,2013-01-25 02:52:00,
2013-01-24 21:54:00,17.8,-0.4,30.27,WNW,292,15.4,20.4,44,0.00,,SKC,0.00,VWS V14.01,2013-01-25 02:54:00,
2013-01-24 21:56:00,17.8,-0.4,30.27,NW,315,10.3,16.1,44,0.00,,SKC,0.00,VWS V14.01,2013-01-25 02:56:00,
2013-01-24 21:57:00,18.7,0.4,30.21,WNW,292,15.2,15.4,44,0.00,,SKC,0.00,VWS V14.01,2013-01-25 02:57:00,
2013-01-24 21:58:00,17.8,-0.4,30.27,NW,315,12.8,15.2,44,0.00,,SKC,0.00,VWS V14.01,2013-01-25 02:58:00,
2013-01-24 22:00:00,17.8,-0.4,30.27,NNW,338,12.8,18.6,44,0.00,,SKC,0.00,VWS V14.01,2013-01-25 03:00:00,
2013-01-24 22:02:00,18.5,0.2,30.24,WNW,292,17.0,21.3,44,0.00,,SKC,0.00,VWS V14.01,2013-01-25 03:02:00,
2013-01-24 22:04:00,17.8,-0.4,30.27,NW,315,15.4,19.0,44,0.00,,SKC,0.00,VWS V14.01,2013-01-25 03:04:00,
2013-01-24 22:06:00,17.8,-0.4,30.27,NW,315,15.4,19.7,44,0.00,,SKC,0.00,VWS V14.01,2013-01-25 03:06:00,
2013-01-24 22:07:00,18.5,0.2,30.24,WNW,292,15.2,15.9,44,0.00,,SKC,0.00,VWS V14.01,2013-01-25 03:07:00,
2013-01-24 22:08:00,17.8,-0.4,30.27,NW,315,10.7,14.8,44,0.00,,SKC,0.00,VWS V14.01,2013-01-25 03:08:00,
2013-01-24 22:10:00,17.8,-0.4,30.27,NW,315,21.5,21.5,44,0.00,,SKC,0.00,VWS V14.01,2013-01-25 03:10:00,
2013-01-24 22:12:00,18.3,0.1,30.24,WNW,292,17.7,17.7,44,0.00,,SKC,0.00,VWS V14.01,2013-01-25 03:12:00,
2013-01-24 22:14:00,17.8,-0.4,30.24,WNW,292,13.2,13.2,44,0.00,,SKC,0.00,VWS V14.01,2013-01-25 03:14:00,
2013-01-24 22:16:00,17.8,-0.4,30.24,WNW,292,15.9,17.0,44,0.00,,SKC,0.00,VWS V14.01,2013-01-25 03:16:00,
2013-01-24 22:17:00,18.3,0.1,30.27,NW,315,11.0,11.9,44,0.00,,SKC,0.00,VWS V14.01,2013-01-25 03:17:00,
2013-01-24 22:18:00,17.8,-0.4,30.24,NNW,338,12.5,15.2,44,0.00,,SKC,0.00,VWS V14.01,2013-01-25 03:18:00,
2013-01-24 22:20:00,17.6,-0.6,30.24,NW,315,12.5,15.2,44,0.00,,SKC,0.00,VWS V14.01,2013-01-25 03:20:00,
2013-01-24 22:22:00,18.3,0.1,30.27,WNW,292,12.8,24.2,44,0.00,,SKC,0.00,VWS V14.01,2013-01-25 03:22:00,
2013-01-24 22:24:00,17.8,-0.4,30.24,NW,315,16.3,19.7,44,0.00,,SKC,0.00,VWS V14.01,2013-01-25 03:24:00,
2013-01-24 22:26:00,17.8,-0.4,30.24,NW,315,14.5,19.5,44,0.00,,SKC,0.00,VWS V14.01,2013-01-25 03:26:00,
2013-01-24 22:27:00,18.1,-0.1,30.27,West,270,14.8,17.2,44,0.00,,SKC,0.00,VWS V14.01,2013-01-25 03:27:00,
2013-01-24 22:28:00,17.8,-0.4,30.24,West,270,13.2,19.5,44,0.00,,SKC,0.00,VWS V14.01,2013-01-25 03:28:00,
2013-01-24 22:30:00,17.6,-0.6,30.24,WNW,292,19.0,19.0,44,0.00,,SKC,0.00,VWS V14.01,2013-01-25 03:30:00,
2013-01-24 22:32:00,18.1,-0.1,30.27,NNW,338,10.7,11.2,44,0.00,,SKC,0.00,VWS V14.01,2013-01-25 03:32:00,
2013-01-24 22:34:00,17.8,-0.4,30.24,NNW,338,10.3,15.4,44,0.00,,SKC,0.00,VWS V14.01,2013-01-25 03:34:00,
2013-01-24 22:36:00,17.8,-0.4,30.24,West,270,17.5,19.7,44,0.00,,SKC,0.00,VWS V14.01,2013-01-25 03:36:00,
2013-01-24 22:37:00,18.1,-0.6,30.27,WNW,292,12.3,14.1,43,0.00,,SKC,0.00,VWS V14.01,2013-01-25 03:37:00,
2013-01-24 22:38:00,17.8,-0.4,30.24,West,270,15.2,15.2,44,0.00,,SKC,0.00,VWS V14.01,2013-01-25 03:38:00,
2013-01-24 22:40:00,17.6,-0.1,30.24,NW,315,11.0,18.1,45,0.00,,SKC,0.00,VWS V14.01,2013-01-25 03:40:00,
2013-01-24 22:42:00,18.1,-0.1,30.27,WNW,292,16.1,22.2,44,0.00,,SKC,0.00,VWS V14.01,2013-01-25 03:42:00,
2013-01-24 22:44:00,17.6,-0.6,30.24,West,270,13.4,23.0,44,0.00,,SKC,0.00,VWS V14.01,2013-01-25 03:44:00,
2013-01-24 22:46:00,17.6,-0.6,30.24,NW,315,15.4,15.4,44,0.00,,SKC,0.00,VWS V14.01,2013-01-25 03:46:00,
2013-01-24 22:47:00,18.1,-0.1,30.27,West,270,13.0,19.0,44,0.00,,SKC,0.00,VWS V14.01,2013-01-25 03:47:00,
2013-01-24 22:48:00,17.6,-0.6,30.24,West,270,10.7,16.6,44,0.00,,SKC,0.00,VWS V14.01,2013-01-25 03:48:00,
2013-01-24 22:50:00,17.6,-0.6,30.24,NW,315,9.4,14.1,44,0.00,,SKC,0.00,VWS V14.01,2013-01-25 03:50:00,
2013-01-24 22:52:00,18.0,-0.3,30.27,WNW,292,19.5,19.5,44,0.00,,SKC,0.00,VWS V14.01,2013-01-25 03:52:00,
2013-01-24 22:54:00,17.8,-0.4,30.24,NW,315,15.2,15.2,44,0.00,,SKC,0.00,VWS V14.01,2013-01-25 03:54:00,
2013-01-24 22:56:00,17.6,-0.1,30.24,NW,315,14.8,16.6,45,0.00,,SKC,0.00,VWS V14.01,2013-01-25 03:56:00,
2013-01-24 22:57:00,17.8,-0.4,30.27,NW,315,10.1,14.5,44,0.00,,SKC,0.00,VWS V14.01,2013-01-25 03:57:00,
2013-01-24 22:58:00,17.6,-0.6,30.24,NNW,338,10.5,13.0,44,0.00,,SKC,0.00,VWS V14.01,2013-01-25 03:58:00,
2013-01-24 23:00:00,17.6,-0.1,30.27,NW,315,12.5,12.8,45,0.00,,SKC,0.00,VWS V14.01,2013-01-25 04:00:00,
2013-01-24 23:02:00,17.8,-0.4,30.27,West,270,12.8,17.7,44,0.00,,SKC,0.00,VWS V14.01,2013-01-25 04:02:00,
2013-01-24 23:04:00,17.6,-0.1,30.27,WNW,292,9.6,12.8,45,0.00,,SKC,0.00,VWS V14.01,2013-01-25 04:04:00,
2013-01-24 23:06:00,17.6,-0.1,30.27,WNW,292,13.0,17.5,45,0.00,,SKC,0.00,VWS V14.01,2013-01-25 04:06:00,
2013-01-24 23:07:00,17.8,-0.4,30.27,WNW,292,13.2,15.4,44,0.00,,SKC,0.00,VWS V14.01,2013-01-25 04:07:00,
2013-01-24 23:08:00,17.8,-0.4,30.27,NW,315,12.3,17.7,44,0.00,,SKC,0.00,VWS V14.01,2013-01-25 04:08:00,
2013-01-24 23:10:00,17.6,-0.1,30.27,WNW,292,10.7,13.2,45,0.00,,SKC,0.00,VWS V14.01,2013-01-25 04:10:00,
2013-01-24 23:12:00,17.8,-0.4,30.27,NW,315,12.8,16.1,44,0.00,,SKC,0.00,VWS V14.01,2013-01-25 04:12:00,
2013-01-24 23:14:00,17.6,-0.1,30.27,WNW,292,10.7,14.1,45,0.00,,SKC,0.00,VWS V14.01,2013-01-25 04:14:00,
2013-01-24 23:16:00,17.6,-0.1,30.27,NNW,338,8.7,12.8,45,0.00,,SKC,0.00,VWS V14.01,2013-01-25 04:16:00,
2013-01-24 23:17:00,17.8,-0.4,30.24,NW,315,14.8,15.9,44,0.00,,SKC,0.00,VWS V14.01,2013-01-25 04:17:00,
2013-01-24 23:18:00,17.6,-0.1,30.27,NW,315,11.0,11.0,45,0.00,,SKC,0.00,VWS V14.01,2013-01-25 04:18:00,
2013-01-24 23:20:00,17.6,-0.1,30.27,West,270,10.7,16.8,45,0.00,,SKC,0.00,VWS V14.01,2013-01-25 04:20:00,
2013-01-24 23:22:00,17.6,-0.6,30.24,WNW,292,10.5,11.0,44,0.00,,SKC,0.00,VWS V14.01,2013-01-25 04:22:00,
2013-01-24 23:24:00,17.6,-0.1,30.27,WNW,292,8.5,13.2,45,0.00,,SKC,0.00,VWS V14.01,2013-01-25 04:24:00,
2013-01-24 23:26:00,17.6,-0.1,30.27,West,270,9.0,17.0,45,0.00,,SKC,0.00,VWS V14.01,2013-01-25 04:26:00,
2013-01-24 23:27:00,17.8,-0.4,30.24,NW,315,15.4,15.4,44,0.00,,SKC,0.00,VWS V14.01,2013-01-25 04:27:00,
2013-01-24 23:28:00,17.6,-0.1,30.27,WNW,292,6.5,12.5,45,0.00,,SKC,0.00,VWS V14.01,2013-01-25 04:28:00,
2013-01-24 23:30:00,17.6,-0.1,30.27,WNW,292,11.9,15.4,45,0.00,,SKC,0.00,VWS V14.01,2013-01-25 04:30:00,
2013-01-24 23:32:00,17.6,-0.6,30.24,WNW,292,14.8,17.0,44,0.00,,SKC,0.00,VWS V14.01,2013-01-25 04:32:00,
2013-01-24 23:34:00,17.6,-0.1,30.27,NW,315,12.3,12.8,45,0.00,,SKC,0.00,VWS V14.01,2013-01-25 04:34:00,
2013-01-24 23:36:00,17.6,-0.1,30.27,NW,315,10.1,19.9,45,0.00,,SKC,0.00,VWS V14.01,2013-01-25 04:36:00,
2013-01-24 23:37:00,17.8,-0.4,30.24,NW,315,12.8,19.7,44,0.00,,SKC,0.00,VWS V14.01,2013-01-25 04:37:00,
2013-01-24 23:38:00,17.6,-0.1,30.27,NW,315,17.9,17.9,45,0.00,,SKC,0.00,VWS V14.01,2013-01-25 04:38:00,
2013-01-24 23:40:00,17.6,-0.1,30.27,NW,315,10.3,17.7,45,0.00,,SKC,0.00,VWS V14.01,2013-01-25 04:40:00,
2013-01-24 23:42:00,17.6,-0.6,30.24,West,270,13.0,17.5,44,0.00,,SKC,0.00,VWS V14.01,2013-01-25 04:42:00,
2013-01-24 23:44:00,17.6,-0.1,30.27,NW,315,14.8,19.9,45,0.00,,SKC,0.00,VWS V14.01,2013-01-25 04:44:00,
2013-01-24 23:46:00,17.6,-0.1,30.27,WNW,292,12.5,15.2,45,0.00,,SKC,0.00,VWS V14.01,2013-01-25 04:46:00,
2013-01-24 23:47:00,17.6,-0.6,30.24,WNW,292,13.2,20.6,44,0.00,,SKC,0.00,VWS V14.01,2013-01-25 04:47:00,
2013-01-24 23:48:00,17.4,-0.3,30.27,NW,315,14.1,16.3,45,0.00,,SKC,0.00,VWS V14.01,2013-01-25 04:48:00,
2013-01-24 23:50:00,17.4,-0.3,30.27,NW,315,12.5,12.5,45,0.00,,SKC,0.00,VWS V14.01,2013-01-25 04:50:00,
2013-01-24 23:52:00,17.8,-0.4,30.24,NW,315,13.2,16.6,44,0.00,,SKC,0.00,VWS V14.01,2013-01-25 04:52:00,
2013-01-24 23:54:00,17.4,-0.3,30.27,NW,315,14.5,18.1,45,0.00,,SKC,0.00,VWS V14.01,2013-01-25 04:54:00,
2013-01-24 23:56:00,17.4,-0.3,30.27,West,270,13.0,17.5,45,0.00,,SKC,0.00,VWS V14.01,2013-01-25 04:56:00,
2013-01-24 23:57:00,17.6,-0.6,30.24,WNW,292,10.3,15.4,44,0.00,,SKC,0.00,VWS V14.01,2013-01-25 04:57:00,
2013-01-24 23:58:00,17.4,-0.3,30.27,WNW,292,14.8,14.8,45,0.00,,SKC,0.00,VWS V14.01,2013-01-25 04:58:00,